Wetterdaten: Montag, 03.04.2017
Datum Zeit Temp. A. Feuchte A. Luftdruck Regen Wind Richtung Richtung Sonnenschein ET UV Solar Taupunkt Windchill Windben Empfang
03.04.2017 00:00 11,3 C 74 % 1016,8 hPa 0,0 l/m 5,4 km/h (1 Bft) S 190 0 min 0,000 mm 0,0 UV-I 0 W/m 6,8 C 11,3 C 8,0 km/h (2 Bft) 98,00 %
03.04.2017 00:02 11,3 C 74 % 1016,8 hPa 0,0 l/m 4,7 km/h (1 Bft) S-SW 193 0 min 0,000 mm 0,0 UV-I 0 W/m 6,8 C 11,3 C 8,0 km/h (2 Bft) 97,62 %
03.04.2017 00:04 11,3 C 74 % 1016,8 hPa 0,0 l/m 6,0 km/h (2 Bft) S-SW 193 0 min 0,000 mm 0,0 UV-I 0 W/m 6,8 C 11,3 C 8,0 km/h (2 Bft) 98,00 %
03.04.2017 00:06 11,3 C 74 % 1016,9 hPa 0,0 l/m 5,2 km/h (1 Bft) S 190 0 min 0,000 mm 0,0 UV-I 0 W/m 6,8 C 11,3 C 8,0 km/h (2 Bft) 97,37 %
03.04.2017 00:08 11,3 C 74 % 1016,9 hPa 0,0 l/m 5,8 km/h (2 Bft) S 190 0 min 0,000 mm 0,0 UV-I 0 W/m 6,8 C 11,3 C 8,0 km/h (2 Bft) 96,00 %
03.04.2017 00:10 11,3 C 74 % 1016,9 hPa 0,0 l/m 5,8 km/h (2 Bft) S-SW 192 0 min 0,000 mm 0,0 UV-I 0 W/m 6,8 C 11,3 C 8,0 km/h (2 Bft) 97,87 %
03.04.2017 00:12 11,3 C 74 % 1016,9 hPa 0,0 l/m 5,3 km/h (1 Bft) S-SW 192 0 min 0,000 mm 0,0 UV-I 0 W/m 6,8 C 11,3 C 8,0 km/h (2 Bft) 94,34 %
03.04.2017 00:14 11,3 C 74 % 1016,9 hPa 0,0 l/m 3,8 km/h (1 Bft) S-SW 192 0 min 0,000 mm 0,0 UV-I 0 W/m 6,8 C 11,3 C 4,8 km/h (1 Bft) 95,74 %
03.04.2017 00:16 11,3 C 74 % 1016,9 hPa 0,0 l/m 5,0 km/h (1 Bft) S 191 0 min 0,000 mm 0,0 UV-I 0 W/m 6,8 C 11,3 C 6,4 km/h (2 Bft) 97,56 %
03.04.2017 00:18 11,3 C 74 % 1016,9 hPa 0,0 l/m 5,0 km/h (1 Bft) S 191 0 min 0,000 mm 0,0 UV-I 0 W/m 6,8 C 11,3 C 6,4 km/h (2 Bft) 96,00 %
03.04.2017 00:20 11,3 C 74 % 1016,9 hPa 0,0 l/m 4,8 km/h (1 Bft) S 191 0 min 0,000 mm 0,0 UV-I 0 W/m 6,8 C 11,3 C 6,4 km/h (2 Bft) 97,56 %
03.04.2017 00:22 11,3 C 74 % 1016,9 hPa 0,0 l/m 5,0 km/h (1 Bft) S-SW 192 0 min 0,000 mm 0,0 UV-I 0 W/m 6,8 C 11,3 C 8,0 km/h (2 Bft) 94,00 %
03.04.2017 00:24 11,2 C 74 % 1016,9 hPa 0,0 l/m 4,4 km/h (1 Bft) S 191 0 min 0,000 mm 0,0 UV-I 0 W/m 6,7 C 11,2 C 6,4 km/h (2 Bft) 93,62 %
03.04.2017 00:26 11,2 C 74 % 1016,9 hPa 0,0 l/m 3,3 km/h (1 Bft) S 190 0 min 0,000 mm 0,0 UV-I 0 W/m 6,7 C 11,2 C 4,8 km/h (1 Bft) 94,44 %
03.04.2017 00:28 11,2 C 74 % 1017,0 hPa 0,0 l/m 4,5 km/h (1 Bft) S 191 0 min 0,000 mm 0,0 UV-I 0 W/m 6,7 C 11,2 C 6,4 km/h (2 Bft) 94,34 %
03.04.2017 00:30 11,1 C 74 % 1017,0 hPa 0,0 l/m 4,6 km/h (1 Bft) S-SW 192 0 min 0,000 mm 0,0 UV-I 0 W/m 6,6 C 11,1 C 8,0 km/h (2 Bft) 92,45 %
03.04.2017 00:32 11,1 C 74 % 1017,0 hPa 0,0 l/m 4,2 km/h (1 Bft) S-SW 192 0 min 0,000 mm 0,0 UV-I 0 W/m 6,6 C 11,1 C 6,4 km/h (2 Bft) 92,00 %
03.04.2017 00:34 11,1 C 75 % 1017,0 hPa 0,0 l/m 3,6 km/h (1 Bft) S 191 0 min 0,000 mm 0,0 UV-I 0 W/m 6,8 C 11,1 C 6,4 km/h (2 Bft) 97,56 %
03.04.2017 00:36 11,1 C 75 % 1017,0 hPa 0,0 l/m 3,8 km/h (1 Bft) S-SW 193 0 min 0,000 mm 0,0 UV-I 0 W/m 6,8 C 11,1 C 6,4 km/h (2 Bft) 95,74 %
03.04.2017 00:38 11,1 C 75 % 1017,0 hPa 0,0 l/m 4,6 km/h (1 Bft) S-SW 193 0 min 0,000 mm 0,0 UV-I 0 W/m 6,8 C 11,1 C 6,4 km/h (2 Bft) 95,74 %
03.04.2017 00:40 11,0 C 75 % 1017,0 hPa 0,0 l/m 4,4 km/h (1 Bft) S-SW 193 0 min 0,000 mm 0,0 UV-I 0 W/m 6,7 C 11,0 C 6,4 km/h (2 Bft) 96,23 %
03.04.2017 00:42 10,9 C 75 % 1017,0 hPa 0,0 l/m 5,2 km/h (1 Bft) S-SW 193 0 min 0,000 mm 0,0 UV-I 0 W/m 6,6 C 10,9 C 8,0 km/h (2 Bft) 95,12 %
03.04.2017 00:44 10,9 C 75 % 1017,0 hPa 0,0 l/m 5,3 km/h (1 Bft) S-SW 193 0 min 0,000 mm 0,0 UV-I 0 W/m 6,6 C 10,9 C 8,0 km/h (2 Bft) 98,00 %
03.04.2017 00:46 10,8 C 75 % 1017,0 hPa 0,0 l/m 4,6 km/h (1 Bft) S-SW 194 0 min 0,000 mm 0,0 UV-I 0 W/m 6,5 C 10,8 C 6,4 km/h (2 Bft) 95,74 %
03.04.2017 00:48 10,8 C 76 % 1017,0 hPa 0,0 l/m 5,8 km/h (2 Bft) S-SW 196 0 min 0,000 mm 0,0 UV-I 0 W/m 6,7 C 10,8 C 8,0 km/h (2 Bft) 91,67 %
03.04.2017 00:50 10,7 C 76 % 1017,0 hPa 0,0 l/m 5,9 km/h (2 Bft) S-SW 196 0 min 0,000 mm 0,0 UV-I 0 W/m 6,6 C 10,7 C 8,0 km/h (2 Bft) 96,34 %
03.04.2017 00:52 10,7 C 76 % 1017,0 hPa 0,0 l/m 3,8 km/h (1 Bft) S-SW 196 0 min 0,000 mm 0,0 UV-I 0 W/m 6,6 C 10,7 C 6,4 km/h (2 Bft) 96,00 %
03.04.2017 00:54 10,7 C 76 % 1017,0 hPa 0,0 l/m 4,0 km/h (1 Bft) S-SW 196 0 min 0,000 mm 0,0 UV-I 0 W/m 6,6 C 10,7 C 6,4 km/h (2 Bft) 97,37 %
03.04.2017 00:56 10,6 C 76 % 1017,0 hPa 0,0 l/m 4,5 km/h (1 Bft) S-SW 196 0 min 0,000 mm 0,0 UV-I 0 W/m 6,5 C 10,6 C 8,0 km/h (2 Bft) 93,62 %
03.04.2017 00:58 10,6 C 77 % 1017,1 hPa 0,0 l/m 5,2 km/h (1 Bft) S-SW 196 0 min 0,000 mm 0,0 UV-I 0 W/m 6,7 C 10,6 C 6,4 km/h (2 Bft) 98,11 %
03.04.2017 01:00 10,6 C 76 % 1017,1 hPa 0,0 l/m 4,6 km/h (1 Bft) S-SW 196 0 min 0,025 mm 0,0 UV-I 0 W/m 6,5 C 10,6 C 6,4 km/h (2 Bft) 97,37 %
03.04.2017 01:02 10,6 C 76 % 1017,1 hPa 0,0 l/m 3,8 km/h (1 Bft) S-SW 196 0 min 0,000 mm 0,0 UV-I 0 W/m 6,5 C 10,6 C 6,4 km/h (2 Bft) 98,00 %
03.04.2017 01:04 10,6 C 76 % 1017,1 hPa 0,0 l/m 4,0 km/h (1 Bft) S-SW 196 0 min 0,000 mm 0,0 UV-I 0 W/m 6,5 C 10,6 C 4,8 km/h (1 Bft) 98,00 %
03.04.2017 01:06 10,6 C 76 % 1017,1 hPa 0,0 l/m 4,5 km/h (1 Bft) S-SW 196 0 min 0,000 mm 0,0 UV-I 0 W/m 6,5 C 10,6 C 6,4 km/h (2 Bft) 97,44 %
03.04.2017 01:08 10,6 C 76 % 1017,1 hPa 0,0 l/m 5,1 km/h (1 Bft) S-SW 196 0 min 0,000 mm 0,0 UV-I 0 W/m 6,5 C 10,6 C 6,4 km/h (2 Bft) 97,56 %
03.04.2017 01:10 10,6 C 76 % 1017,2 hPa 0,0 l/m 4,9 km/h (1 Bft) S-SW 196 0 min 0,000 mm 0,0 UV-I 0 W/m 6,5 C 10,6 C 8,0 km/h (2 Bft) 95,38 %
03.04.2017 01:12 10,6 C 77 % 1017,2 hPa 0,0 l/m 5,2 km/h (1 Bft) S-SW 197 0 min 0,000 mm 0,0 UV-I 0 W/m 6,7 C 10,6 C 6,4 km/h (2 Bft) 95,12 %
03.04.2017 01:14 10,5 C 77 % 1017,2 hPa 0,0 l/m 5,1 km/h (1 Bft) S-SW 198 0 min 0,000 mm 0,0 UV-I 0 W/m 6,6 C 10,5 C 6,4 km/h (2 Bft) 94,34 %
03.04.2017 01:16 10,5 C 77 % 1017,2 hPa 0,0 l/m 5,8 km/h (2 Bft) S-SW 199 0 min 0,000 mm 0,0 UV-I 0 W/m 6,6 C 10,5 C 8,0 km/h (2 Bft) 92,11 %
03.04.2017 01:18 10,5 C 77 % 1017,2 hPa 0,0 l/m 4,7 km/h (1 Bft) S-SW 204 0 min 0,000 mm 0,0 UV-I 0 W/m 6,6 C 10,5 C 6,4 km/h (2 Bft) 95,74 %
03.04.2017 01:20 10,5 C 77 % 1017,3 hPa 0,0 l/m 5,4 km/h (1 Bft) S-SW 202 0 min 0,000 mm 0,0 UV-I 0 W/m 6,6 C 10,5 C 8,0 km/h (2 Bft) 98,11 %
03.04.2017 01:22 10,5 C 77 % 1017,2 hPa 0,0 l/m 6,8 km/h (2 Bft) S-SW 213 0 min 0,000 mm 0,0 UV-I 0 W/m 6,6 C 10,2 C 9,7 km/h (2 Bft) 95,12 %
03.04.2017 01:24 10,6 C 77 % 1017,2 hPa 0,0 l/m 5,1 km/h (1 Bft) SW 215 0 min 0,000 mm 0,0 UV-I 0 W/m 6,7 C 10,6 C 8,0 km/h (2 Bft) 98,08 %
03.04.2017 01:26 10,6 C 77 % 1017,2 hPa 0,0 l/m 4,8 km/h (1 Bft) S-SW 213 0 min 0,000 mm 0,0 UV-I 0 W/m 6,7 C 10,6 C 8,0 km/h (2 Bft) 95,74 %
03.04.2017 01:28 10,6 C 77 % 1017,3 hPa 0,0 l/m 4,9 km/h (1 Bft) S-SW 206 0 min 0,000 mm 0,0 UV-I 0 W/m 6,7 C 10,6 C 8,0 km/h (2 Bft) 91,49 %
03.04.2017 01:30 10,6 C 77 % 1017,3 hPa 0,0 l/m 4,4 km/h (1 Bft) S-SW 203 0 min 0,000 mm 0,0 UV-I 0 W/m 6,7 C 10,6 C 8,0 km/h (2 Bft) 97,56 %
03.04.2017 01:32 10,6 C 77 % 1017,3 hPa 0,0 l/m 4,3 km/h (1 Bft) S-SW 203 0 min 0,000 mm 0,0 UV-I 0 W/m 6,7 C 10,6 C 6,4 km/h (2 Bft) 95,45 %
03.04.2017 01:34 10,5 C 77 % 1017,3 hPa 0,0 l/m 5,1 km/h (1 Bft) S-SW 203 0 min 0,000 mm 0,0 UV-I 0 W/m 6,6 C 10,5 C 8,0 km/h (2 Bft) 96,55 %
03.04.2017 01:36 10,6 C 77 % 1017,3 hPa 0,0 l/m 5,2 km/h (1 Bft) S-SW 203 0 min 0,000 mm 0,0 UV-I 0 W/m 6,7 C 10,6 C 6,4 km/h (2 Bft) 97,37 %
03.04.2017 01:38 10,6 C 77 % 1017,3 hPa 0,0 l/m 4,7 km/h (1 Bft) S-SW 204 0 min 0,000 mm 0,0 UV-I 0 W/m 6,7 C 10,6 C 6,4 km/h (2 Bft) 97,87 %
03.04.2017 01:40 10,5 C 77 % 1017,3 hPa 0,0 l/m 5,9 km/h (2 Bft) S-SW 211 0 min 0,000 mm 0,0 UV-I 0 W/m 6,6 C 10,5 C 8,0 km/h (2 Bft) 96,00 %
03.04.2017 01:42 10,5 C 77 % 1017,3 hPa 0,0 l/m 6,7 km/h (2 Bft) S-SW 209 0 min 0,000 mm 0,0 UV-I 0 W/m 6,6 C 10,3 C 9,7 km/h (2 Bft) 98,00 %
03.04.2017 01:44 10,5 C 77 % 1017,3 hPa 0,0 l/m 5,2 km/h (1 Bft) S-SW 203 0 min 0,000 mm 0,0 UV-I 0 W/m 6,6 C 10,5 C 8,0 km/h (2 Bft) 97,22 %
03.04.2017 01:46 10,5 C 77 % 1017,3 hPa 0,0 l/m 5,7 km/h (1 Bft) S-SW 203 0 min 0,000 mm 0,0 UV-I 0 W/m 6,6 C 10,5 C 8,0 km/h (2 Bft) 98,11 %
03.04.2017 01:48 10,5 C 77 % 1017,3 hPa 0,0 l/m 5,7 km/h (1 Bft) S-SW 205 0 min 0,000 mm 0,0 UV-I 0 W/m 6,6 C 10,5 C 9,7 km/h (2 Bft) 100,00 %
03.04.2017 01:50 10,4 C 77 % 1017,3 hPa 0,0 l/m 5,4 km/h (1 Bft) S-SW 205 0 min 0,000 mm 0,0 UV-I 0 W/m 6,5 C 10,4 C 8,0 km/h (2 Bft) 100,00 %
03.04.2017 01:52 10,3 C 77 % 1017,4 hPa 0,0 l/m 5,3 km/h (1 Bft) S-SW 205 0 min 0,000 mm 0,0 UV-I 0 W/m 6,4 C 10,3 C 8,0 km/h (2 Bft) 100,00 %
03.04.2017 01:54 10,3 C 77 % 1017,4 hPa 0,0 l/m 5,1 km/h (1 Bft) S-SW 205 0 min 0,000 mm 0,0 UV-I 0 W/m 6,4 C 10,3 C 6,4 km/h (2 Bft) 100,00 %
03.04.2017 01:56 10,3 C 77 % 1017,3 hPa 0,0 l/m 5,4 km/h (1 Bft) S-SW 206 0 min 0,000 mm 0,0 UV-I 0 W/m 6,4 C 10,3 C 6,4 km/h (2 Bft) 100,00 %
03.04.2017 01:58 10,3 C 77 % 1017,3 hPa 0,0 l/m 5,5 km/h (1 Bft) S-SW 204 0 min 0,000 mm 0,0 UV-I 0 W/m 6,4 C 10,3 C 8,0 km/h (2 Bft) 100,00 %
03.04.2017 02:00 10,3 C 77 % 1017,4 hPa 0,0 l/m 5,5 km/h (1 Bft) S-SW 204 0 min 0,026 mm 0,0 UV-I 0 W/m 6,4 C 10,3 C 8,0 km/h (2 Bft) 98,00 %
03.04.2017 02:02 10,3 C 77 % 1017,4 hPa 0,0 l/m 4,3 km/h (1 Bft) S-SW 204 0 min 0,000 mm 0,0 UV-I 0 W/m 6,4 C 10,3 C 6,4 km/h (2 Bft) 97,56 %
03.04.2017 02:04 10,1 C 78 % 1017,4 hPa 0,0 l/m 3,6 km/h (1 Bft) S-SW 204 0 min 0,000 mm 0,0 UV-I 0 W/m 6,4 C 10,1 C 6,4 km/h (2 Bft) 97,87 %
03.04.2017 02:06 9,8 C 78 % 1017,4 hPa 0,0 l/m 3,4 km/h (1 Bft) S-SW 204 0 min 0,000 mm 0,0 UV-I 0 W/m 6,1 C 9,8 C 6,4 km/h (2 Bft) 93,18 %
03.04.2017 02:08 9,7 C 79 % 1017,4 hPa 0,0 l/m 2,3 km/h (1 Bft) S-SW 204 0 min 0,000 mm 0,0 UV-I 0 W/m 6,2 C 9,7 C 4,8 km/h (1 Bft) 93,62 %
03.04.2017 02:10 9,4 C 80 % 1017,4 hPa 0,0 l/m 2,7 km/h (1 Bft) S-SW 204 0 min 0,000 mm 0,0 UV-I 0 W/m 6,1 C 9,4 C 4,8 km/h (1 Bft) 98,11 %
03.04.2017 02:12 9,3 C 81 % 1017,4 hPa 0,0 l/m 2,8 km/h (1 Bft) S-SW 204 0 min 0,000 mm 0,0 UV-I 0 W/m 6,2 C 9,3 C 4,8 km/h (1 Bft) 96,00 %
03.04.2017 02:14 9,3 C 81 % 1017,5 hPa 0,0 l/m 2,9 km/h (1 Bft) S-SW 204 0 min 0,000 mm 0,0 UV-I 0 W/m 6,2 C 9,3 C 4,8 km/h (1 Bft) 97,56 %
03.04.2017 02:16 9,3 C 81 % 1017,5 hPa 0,0 l/m 2,5 km/h (1 Bft) S-SW 204 0 min 0,000 mm 0,0 UV-I 0 W/m 6,2 C 9,3 C 4,8 km/h (1 Bft) 94,34 %
03.04.2017 02:18 9,3 C 81 % 1017,6 hPa 0,0 l/m 3,2 km/h (1 Bft) S-SW 204 0 min 0,000 mm 0,0 UV-I 0 W/m 6,2 C 9,3 C 4,8 km/h (1 Bft) 92,11 %
03.04.2017 02:20 9,4 C 81 % 1017,5 hPa 0,0 l/m 4,3 km/h (1 Bft) S-SW 204 0 min 0,000 mm 0,0 UV-I 0 W/m 6,3 C 9,4 C 6,4 km/h (2 Bft) 96,00 %
03.04.2017 02:22 9,6 C 81 % 1017,6 hPa 0,0 l/m 4,2 km/h (1 Bft) S-SW 204 0 min 0,000 mm 0,0 UV-I 0 W/m 6,5 C 9,6 C 6,4 km/h (2 Bft) 91,49 %
03.04.2017 02:24 9,6 C 80 % 1017,6 hPa 0,0 l/m 3,4 km/h (1 Bft) S-SW 204 0 min 0,000 mm 0,0 UV-I 0 W/m 6,3 C 9,6 C 6,4 km/h (2 Bft) 97,92 %
03.04.2017 02:26 9,6 C 80 % 1017,6 hPa 0,0 l/m 2,8 km/h (1 Bft) S-SW 198 0 min 0,000 mm 0,0 UV-I 0 W/m 6,3 C 9,6 C 6,4 km/h (2 Bft) 98,00 %
03.04.2017 02:28 9,6 C 81 % 1017,5 hPa 0,0 l/m 2,9 km/h (1 Bft) S-SW 196 0 min 0,000 mm 0,0 UV-I 0 W/m 6,5 C 9,6 C 4,8 km/h (1 Bft) 95,12 %
03.04.2017 02:30 9,6 C 81 % 1017,5 hPa 0,0 l/m 3,0 km/h (1 Bft) S-SW 196 0 min 0,000 mm 0,0 UV-I 0 W/m 6,5 C 9,6 C 6,4 km/h (2 Bft) 94,00 %
03.04.2017 02:32 9,5 C 80 % 1017,5 hPa 0,0 l/m 3,9 km/h (1 Bft) S-SW 196 0 min 0,000 mm 0,0 UV-I 0 W/m 6,2 C 9,5 C 6,4 km/h (2 Bft) 95,74 %
03.04.2017 02:34 9,5 C 81 % 1017,5 hPa 0,0 l/m 4,0 km/h (1 Bft) S-SW 196 0 min 0,000 mm 0,0 UV-I 0 W/m 6,4 C 9,5 C 6,4 km/h (2 Bft) 97,56 %
03.04.2017 02:36 9,6 C 81 % 1017,6 hPa 0,0 l/m 5,6 km/h (1 Bft) S-SW 198 0 min 0,000 mm 0,0 UV-I 0 W/m 6,5 C 9,6 C 8,0 km/h (2 Bft) 93,62 %
03.04.2017 02:38 9,7 C 81 % 1017,6 hPa 0,0 l/m 4,2 km/h (1 Bft) S-SW 198 0 min 0,000 mm 0,0 UV-I 0 W/m 6,6 C 9,7 C 8,0 km/h (2 Bft) 95,74 %
03.04.2017 02:40 9,7 C 80 % 1017,6 hPa 0,0 l/m 3,8 km/h (1 Bft) S-SW 198 0 min 0,000 mm 0,0 UV-I 0 W/m 6,4 C 9,7 C 6,4 km/h (2 Bft) 100,00 %
03.04.2017 02:42 9,8 C 81 % 1017,7 hPa 0,0 l/m 3,7 km/h (1 Bft) S-SW 198 0 min 0,000 mm 0,0 UV-I 0 W/m 6,7 C 9,8 C 4,8 km/h (1 Bft) 100,00 %
03.04.2017 02:44 9,8 C 80 % 1017,7 hPa 0,0 l/m 2,6 km/h (1 Bft) S-SW 198 0 min 0,000 mm 0,0 UV-I 0 W/m 6,5 C 9,8 C 4,8 km/h (1 Bft) 100,00 %
03.04.2017 02:46 9,8 C 80 % 1017,8 hPa 0,0 l/m 4,1 km/h (1 Bft) S-SW 198 0 min 0,000 mm 0,0 UV-I 0 W/m 6,5 C 9,8 C 4,8 km/h (1 Bft) 98,00 %
03.04.2017 02:48 9,8 C 80 % 1017,8 hPa 0,0 l/m 3,1 km/h (1 Bft) S-SW 198 0 min 0,000 mm 0,0 UV-I 0 W/m 6,5 C 9,8 C 4,8 km/h (1 Bft) 97,73 %
03.04.2017 02:50 9,8 C 80 % 1017,8 hPa 0,0 l/m 2,5 km/h (1 Bft) S-SW 198 0 min 0,000 mm 0,0 UV-I 0 W/m 6,5 C 9,8 C 3,2 km/h (1 Bft) 100,00 %
03.04.2017 02:52 9,8 C 80 % 1017,8 hPa 0,0 l/m 2,2 km/h (1 Bft) S-SW 198 0 min 0,000 mm 0,0 UV-I 0 W/m 6,5 C 9,8 C 4,8 km/h (1 Bft) 98,00 %
03.04.2017 02:54 9,8 C 80 % 1017,8 hPa 0,0 l/m 3,3 km/h (1 Bft) S-SW 198 0 min 0,000 mm 0,0 UV-I 0 W/m 6,5 C 9,8 C 4,8 km/h (1 Bft) 94,34 %
03.04.2017 02:56 9,7 C 80 % 1017,8 hPa 0,0 l/m 1,2 km/h (1 Bft) S-SW 198 0 min 0,000 mm 0,0 UV-I 0 W/m 6,4 C 9,7 C 3,2 km/h (1 Bft) 100,00 %
03.04.2017 02:58 9,6 C 80 % 1017,8 hPa 0,0 l/m 0,7 km/h (0 Bft) S-SW 198 0 min 0,000 mm 0,0 UV-I 0 W/m 6,3 C 9,6 C 3,2 km/h (1 Bft) 98,00 %
03.04.2017 03:00 9,4 C 81 % 1017,9 hPa 0,0 l/m 3,4 km/h (1 Bft) S-SW 198 0 min 0,000 mm 0,0 UV-I 0 W/m 6,3 C 9,4 C 6,4 km/h (2 Bft) 97,56 %
03.04.2017 03:02 9,3 C 81 % 1017,8 hPa 0,0 l/m 2,4 km/h (1 Bft) S-SW 198 0 min 0,000 mm 0,0 UV-I 0 W/m 6,2 C 9,3 C 4,8 km/h (1 Bft) 100,00 %
03.04.2017 03:04 9,2 C 82 % 1017,9 hPa 0,0 l/m 2,1 km/h (1 Bft) S-SW 198 0 min 0,000 mm 0,0 UV-I 0 W/m 6,3 C 9,2 C 4,8 km/h (1 Bft) 95,24 %
03.04.2017 03:06 9,2 C 82 % 1017,9 hPa 0,0 l/m 2,3 km/h (1 Bft) S-SW 198 0 min 0,000 mm 0,0 UV-I 0 W/m 6,3 C 9,2 C 4,8 km/h (1 Bft) 100,00 %
03.04.2017 03:08 9,1 C 82 % 1017,9 hPa 0,0 l/m 1,7 km/h (1 Bft) S-SW 198 0 min 0,000 mm 0,0 UV-I 0 W/m 6,2 C 9,1 C 3,2 km/h (1 Bft) 98,21 %
03.04.2017 03:10 9,0 C 83 % 1017,9 hPa 0,0 l/m 1,7 km/h (1 Bft) S-SW 198 0 min 0,000 mm 0,0 UV-I 0 W/m 6,3 C 9,0 C 3,2 km/h (1 Bft) 100,00 %
03.04.2017 03:12 9,1 C 83 % 1018,0 hPa 0,0 l/m 0,7 km/h (0 Bft) S-SW 198 0 min 0,000 mm 0,0 UV-I 0 W/m 6,4 C 9,1 C 1,6 km/h (1 Bft) 96,00 %
03.04.2017 03:14 9,1 C 83 % 1018,0 hPa 0,0 l/m 0,5 km/h (0 Bft) S-SW 198 0 min 0,000 mm 0,0 UV-I 0 W/m 6,4 C 9,1 C 1,6 km/h (1 Bft) 100,00 %
03.04.2017 03:16 9,1 C 83 % 1018,0 hPa 0,0 l/m 2,2 km/h (1 Bft) S-SW 198 0 min 0,000 mm 0,0 UV-I 0 W/m 6,4 C 9,1 C 6,4 km/h (2 Bft) 100,00 %
03.04.2017 03:18 9,2 C 83 % 1018,0 hPa 0,0 l/m 2,3 km/h (1 Bft) S-SW 197 0 min 0,000 mm 0,0 UV-I 0 W/m 6,5 C 9,2 C 6,4 km/h (2 Bft) 95,74 %
03.04.2017 03:20 9,3 C 82 % 1018,0 hPa 0,0 l/m 1,0 km/h (0 Bft) S-SW 198 0 min 0,000 mm 0,0 UV-I 0 W/m 6,4 C 9,3 C 3,2 km/h (1 Bft) 100,00 %
03.04.2017 03:22 9,4 C 82 % 1018,1 hPa 0,0 l/m 1,0 km/h (0 Bft) S-SW 198 0 min 0,000 mm 0,0 UV-I 0 W/m 6,5 C 9,4 C 3,2 km/h (1 Bft) 98,00 %
03.04.2017 03:24 9,4 C 82 % 1018,1 hPa 0,0 l/m 2,6 km/h (1 Bft) S-SW 198 0 min 0,000 mm 0,0 UV-I 0 W/m 6,5 C 9,4 C 4,8 km/h (1 Bft) 100,00 %
03.04.2017 03:26 9,5 C 81 % 1018,2 hPa 0,0 l/m 2,7 km/h (1 Bft) S-SW 198 0 min 0,000 mm 0,0 UV-I 0 W/m 6,4 C 9,5 C 4,8 km/h (1 Bft) 100,00 %
03.04.2017 03:28 9,5 C 81 % 1018,2 hPa 0,0 l/m 2,2 km/h (1 Bft) S-SW 197 0 min 0,000 mm 0,0 UV-I 0 W/m 6,4 C 9,5 C 4,8 km/h (1 Bft) 98,11 %
03.04.2017 03:30 9,5 C 81 % 1018,2 hPa 0,0 l/m 2,5 km/h (1 Bft) S-SW 197 0 min 0,000 mm 0,0 UV-I 0 W/m 6,4 C 9,5 C 4,8 km/h (1 Bft) 100,00 %
03.04.2017 03:32 9,4 C 81 % 1018,3 hPa 0,0 l/m 2,6 km/h (1 Bft) S-SW 197 0 min 0,000 mm 0,0 UV-I 0 W/m 6,3 C 9,4 C 4,8 km/h (1 Bft) 100,00 %
03.04.2017 03:34 9,5 C 81 % 1018,3 hPa 0,0 l/m 2,5 km/h (1 Bft) S-SW 197 0 min 0,000 mm 0,0 UV-I 0 W/m 6,4 C 9,5 C 4,8 km/h (1 Bft) 98,00 %
03.04.2017 03:36 9,5 C 81 % 1018,3 hPa 0,0 l/m 1,1 km/h (1 Bft) S-SW 197 0 min 0,000 mm 0,0 UV-I 0 W/m 6,4 C 9,5 C 4,8 km/h (1 Bft) 97,87 %
03.04.2017 03:38 9,4 C 81 % 1018,3 hPa 0,0 l/m 0,4 km/h (0 Bft) S-SW 197 0 min 0,000 mm 0,0 UV-I 0 W/m 6,3 C 9,4 C 3,2 km/h (1 Bft) 100,00 %
03.04.2017 03:40 9,3 C 82 % 1018,3 hPa 0,0 l/m 2,8 km/h (1 Bft) S-SW 197 0 min 0,000 mm 0,0 UV-I 0 W/m 6,4 C 9,3 C 4,8 km/h (1 Bft) 98,08 %
03.04.2017 03:42 9,3 C 82 % 1018,3 hPa 0,0 l/m 2,9 km/h (1 Bft) S-SW 197 0 min 0,000 mm 0,0 UV-I 0 W/m 6,4 C 9,3 C 4,8 km/h (1 Bft) 100,00 %
03.04.2017 03:44 9,3 C 82 % 1018,3 hPa 0,0 l/m 1,1 km/h (1 Bft) S-SW 197 0 min 0,000 mm 0,0 UV-I 0 W/m 6,4 C 9,3 C 3,2 km/h (1 Bft) 97,62 %
03.04.2017 03:46 9,3 C 82 % 1018,3 hPa 0,0 l/m 1,6 km/h (1 Bft) S-SW 197 0 min 0,000 mm 0,0 UV-I 0 W/m 6,4 C 9,3 C 3,2 km/h (1 Bft) 100,00 %
03.04.2017 03:48 9,2 C 82 % 1018,3 hPa 0,0 l/m 0,5 km/h (0 Bft) S-SW 197 0 min 0,000 mm 0,0 UV-I 0 W/m 6,3 C 9,2 C 3,2 km/h (1 Bft) 96,00 %
03.04.2017 03:50 9,2 C 82 % 1018,3 hPa 0,0 l/m 0,9 km/h (0 Bft) S-SW 197 0 min 0,000 mm 0,0 UV-I 0 W/m 6,3 C 9,2 C 3,2 km/h (1 Bft) 97,87 %
03.04.2017 03:52 9,3 C 82 % 1018,3 hPa 0,0 l/m 2,0 km/h (1 Bft) S-SW 197 0 min 0,000 mm 0,0 UV-I 0 W/m 6,4 C 9,3 C 3,2 km/h (1 Bft) 100,00 %
03.04.2017 03:54 9,3 C 82 % 1018,3 hPa 0,0 l/m 2,9 km/h (1 Bft) S-SW 197 0 min 0,000 mm 0,0 UV-I 0 W/m 6,4 C 9,3 C 3,2 km/h (1 Bft) 97,56 %
03.04.2017 03:56 9,4 C 82 % 1018,3 hPa 0,0 l/m 2,0 km/h (1 Bft) S-SW 197 0 min 0,000 mm 0,0 UV-I 0 W/m 6,5 C 9,4 C 3,2 km/h (1 Bft) 97,56 %
03.04.2017 03:58 9,4 C 82 % 1018,4 hPa 0,0 l/m 1,6 km/h (1 Bft) S-SW 197 0 min 0,000 mm 0,0 UV-I 0 W/m 6,5 C 9,4 C 3,2 km/h (1 Bft) 100,00 %
03.04.2017 04:00 9,4 C 82 % 1018,4 hPa 0,0 l/m 1,2 km/h (1 Bft) S-SW 197 0 min 0,000 mm 0,0 UV-I 0 W/m 6,5 C 9,4 C 3,2 km/h (1 Bft) 98,00 %
03.04.2017 04:02 9,3 C 82 % 1018,4 hPa 0,0 l/m 2,6 km/h (1 Bft) S-SW 197 0 min 0,000 mm 0,0 UV-I 0 W/m 6,4 C 9,3 C 4,8 km/h (1 Bft) 97,37 %
03.04.2017 04:04 9,3 C 82 % 1018,5 hPa 0,0 l/m 4,3 km/h (1 Bft) S-SW 197 0 min 0,000 mm 0,0 UV-I 0 W/m 6,4 C 9,3 C 6,4 km/h (2 Bft) 100,00 %
03.04.2017 04:06 9,3 C 82 % 1018,5 hPa 0,0 l/m 4,5 km/h (1 Bft) S-SW 197 0 min 0,000 mm 0,0 UV-I 0 W/m 6,4 C 9,3 C 6,4 km/h (2 Bft) 98,00 %
03.04.2017 04:08 9,3 C 82 % 1018,5 hPa 0,0 l/m 1,4 km/h (1 Bft) S-SW 197 0 min 0,000 mm 0,0 UV-I 0 W/m 6,4 C 9,3 C 3,2 km/h (1 Bft) 100,00 %
03.04.2017 04:10 9,2 C 82 % 1018,6 hPa 0,0 l/m 2,3 km/h (1 Bft) S-SW 197 0 min 0,000 mm 0,0 UV-I 0 W/m 6,3 C 9,2 C 4,8 km/h (1 Bft) 94,00 %
03.04.2017 04:12 9,2 C 83 % 1018,6 hPa 0,0 l/m 2,0 km/h (1 Bft) S-SW 197 0 min 0,000 mm 0,0 UV-I 0 W/m 6,5 C 9,2 C 4,8 km/h (1 Bft) 97,56 %
03.04.2017 04:14 9,3 C 83 % 1018,6 hPa 0,0 l/m 3,5 km/h (1 Bft) S-SW 197 0 min 0,000 mm 0,0 UV-I 0 W/m 6,6 C 9,3 C 6,4 km/h (2 Bft) 94,00 %
03.04.2017 04:16 9,3 C 82 % 1018,6 hPa 0,0 l/m 0,9 km/h (0 Bft) S-SW 197 0 min 0,000 mm 0,0 UV-I 0 W/m 6,4 C 9,3 C 3,2 km/h (1 Bft) 97,56 %
03.04.2017 04:18 9,3 C 82 % 1018,6 hPa 0,0 l/m 1,2 km/h (1 Bft) S-SW 197 0 min 0,000 mm 0,0 UV-I 0 W/m 6,4 C 9,3 C 3,2 km/h (1 Bft) 96,00 %
03.04.2017 04:20 9,2 C 83 % 1018,6 hPa 0,0 l/m 0,4 km/h (0 Bft) S-SW 197 0 min 0,000 mm 0,0 UV-I 0 W/m 6,5 C 9,2 C 3,2 km/h (1 Bft) 95,74 %
03.04.2017 04:22 9,2 C 83 % 1018,6 hPa 0,0 l/m 2,0 km/h (1 Bft) S-SW 197 0 min 0,000 mm 0,0 UV-I 0 W/m 6,5 C 9,2 C 4,8 km/h (1 Bft) 94,00 %
03.04.2017 04:24 9,2 C 83 % 1018,6 hPa 0,0 l/m 3,4 km/h (1 Bft) S-SW 197 0 min 0,000 mm 0,0 UV-I 0 W/m 6,5 C 9,2 C 4,8 km/h (1 Bft) 100,00 %
03.04.2017 04:26 9,2 C 83 % 1018,6 hPa 0,0 l/m 3,7 km/h (1 Bft) S-SW 197 0 min 0,000 mm 0,0 UV-I 0 W/m 6,5 C 9,2 C 4,8 km/h (1 Bft) 96,00 %
03.04.2017 04:28 9,2 C 83 % 1018,7 hPa 0,0 l/m 3,7 km/h (1 Bft) S-SW 197 0 min 0,000 mm 0,0 UV-I 0 W/m 6,5 C 9,2 C 4,8 km/h (1 Bft) 98,00 %
03.04.2017 04:30 9,2 C 83 % 1018,7 hPa 0,0 l/m 4,7 km/h (1 Bft) S-SW 197 0 min 0,000 mm 0,0 UV-I 0 W/m 6,5 C 9,2 C 6,4 km/h (2 Bft) 97,37 %
03.04.2017 04:32 9,1 C 83 % 1018,7 hPa 0,0 l/m 3,3 km/h (1 Bft) S-SW 197 0 min 0,000 mm 0,0 UV-I 0 W/m 6,4 C 9,1 C 4,8 km/h (1 Bft) 98,11 %
03.04.2017 04:34 9,0 C 83 % 1018,7 hPa 0,0 l/m 1,3 km/h (1 Bft) S-SW 197 0 min 0,000 mm 0,0 UV-I 0 W/m 6,3 C 9,0 C 4,8 km/h (1 Bft) 98,11 %
03.04.2017 04:36 8,9 C 84 % 1018,7 hPa 0,0 l/m 5,4 km/h (1 Bft) S-SW 197 0 min 0,000 mm 0,0 UV-I 0 W/m 6,3 C 8,9 C 6,4 km/h (2 Bft) 94,74 %
03.04.2017 04:38 8,9 C 84 % 1018,7 hPa 0,0 l/m 1,5 km/h (1 Bft) S-SW 197 0 min 0,000 mm 0,0 UV-I 0 W/m 6,3 C 8,9 C 6,4 km/h (2 Bft) 98,00 %
03.04.2017 04:40 8,8 C 84 % 1018,7 hPa 0,0 l/m 2,4 km/h (1 Bft) S-SW 197 0 min 0,000 mm 0,0 UV-I 0 W/m 6,2 C 8,8 C 4,8 km/h (1 Bft) 94,34 %
03.04.2017 04:42 8,8 C 84 % 1018,7 hPa 0,0 l/m 4,7 km/h (1 Bft) S-SW 197 0 min 0,000 mm 0,0 UV-I 0 W/m 6,2 C 8,8 C 8,0 km/h (2 Bft) 95,12 %
03.04.2017 04:44 8,9 C 84 % 1018,8 hPa 0,0 l/m 5,8 km/h (2 Bft) S-SW 197 0 min 0,000 mm 0,0 UV-I 0 W/m 6,3 C 8,9 C 6,4 km/h (2 Bft) 97,73 %
03.04.2017 04:46 8,9 C 84 % 1018,8 hPa 0,0 l/m 4,0 km/h (1 Bft) S-SW 197 0 min 0,000 mm 0,0 UV-I 0 W/m 6,3 C 8,9 C 6,4 km/h (2 Bft) 94,34 %
03.04.2017 04:48 8,9 C 84 % 1018,8 hPa 0,0 l/m 3,3 km/h (1 Bft) S-SW 197 0 min 0,000 mm 0,0 UV-I 0 W/m 6,3 C 8,9 C 4,8 km/h (1 Bft) 97,37 %
03.04.2017 04:50 8,9 C 84 % 1018,8 hPa 0,0 l/m 5,0 km/h (1 Bft) S-SW 197 0 min 0,000 mm 0,0 UV-I 0 W/m 6,3 C 8,9 C 6,4 km/h (2 Bft) 93,62 %
03.04.2017 04:52 8,9 C 84 % 1018,8 hPa 0,0 l/m 4,2 km/h (1 Bft) S-SW 197 0 min 0,000 mm 0,0 UV-I 0 W/m 6,3 C 8,9 C 4,8 km/h (1 Bft) 98,00 %
03.04.2017 04:54 8,8 C 84 % 1018,9 hPa 0,0 l/m 4,1 km/h (1 Bft) S-SW 197 0 min 0,000 mm 0,0 UV-I 0 W/m 6,2 C 8,8 C 6,4 km/h (2 Bft) 91,49 %
03.04.2017 04:56 8,8 C 84 % 1018,8 hPa 0,0 l/m 2,5 km/h (1 Bft) S-SW 197 0 min 0,000 mm 0,0 UV-I 0 W/m 6,2 C 8,8 C 4,8 km/h (1 Bft) 98,11 %
03.04.2017 04:58 8,8 C 84 % 1018,9 hPa 0,0 l/m 2,6 km/h (1 Bft) S-SW 197 0 min 0,000 mm 0,0 UV-I 0 W/m 6,2 C 8,8 C 4,8 km/h (1 Bft) 97,44 %
03.04.2017 05:00 8,7 C 84 % 1018,9 hPa 0,0 l/m 3,1 km/h (1 Bft) S-SW 197 0 min 0,000 mm 0,0 UV-I 0 W/m 6,2 C 8,7 C 4,8 km/h (1 Bft) 95,92 %
03.04.2017 05:02 8,7 C 84 % 1018,9 hPa 0,0 l/m 3,3 km/h (1 Bft) S-SW 197 0 min 0,000 mm 0,0 UV-I 0 W/m 6,2 C 8,7 C 4,8 km/h (1 Bft) 96,00 %
03.04.2017 05:04 8,7 C 84 % 1018,9 hPa 0,0 l/m 2,9 km/h (1 Bft) S-SW 197 0 min 0,000 mm 0,0 UV-I 0 W/m 6,2 C 8,7 C 6,4 km/h (2 Bft) 91,67 %
03.04.2017 05:06 8,7 C 85 % 1018,9 hPa 0,0 l/m 3,7 km/h (1 Bft) S-SW 197 0 min 0,000 mm 0,0 UV-I 0 W/m 6,3 C 8,7 C 6,4 km/h (2 Bft) 95,12 %
03.04.2017 05:08 8,6 C 85 % 1018,9 hPa 0,0 l/m 2,7 km/h (1 Bft) S-SW 197 0 min 0,000 mm 0,0 UV-I 0 W/m 6,2 C 8,6 C 4,8 km/h (1 Bft) 95,74 %
03.04.2017 05:10 8,6 C 85 % 1018,9 hPa 0,0 l/m 1,9 km/h (1 Bft) S-SW 197 0 min 0,000 mm 0,0 UV-I 0 W/m 6,2 C 8,6 C 3,2 km/h (1 Bft) 94,00 %
03.04.2017 05:12 8,4 C 85 % 1019,0 hPa 0,0 l/m 2,1 km/h (1 Bft) S-SW 197 0 min 0,000 mm 0,0 UV-I 0 W/m 6,0 C 8,4 C 3,2 km/h (1 Bft) 98,00 %
03.04.2017 05:14 8,5 C 85 % 1019,0 hPa 0,0 l/m 3,1 km/h (1 Bft) S-SW 197 0 min 0,000 mm 0,0 UV-I 0 W/m 6,1 C 8,5 C 4,8 km/h (1 Bft) 97,37 %
03.04.2017 05:16 8,6 C 85 % 1019,0 hPa 0,0 l/m 3,0 km/h (1 Bft) S-SW 197 0 min 0,000 mm 0,0 UV-I 0 W/m 6,2 C 8,6 C 4,8 km/h (1 Bft) 96,00 %
03.04.2017 05:18 8,7 C 85 % 1019,0 hPa 0,0 l/m 1,7 km/h (1 Bft) S-SW 197 0 min 0,000 mm 0,0 UV-I 0 W/m 6,3 C 8,7 C 4,8 km/h (1 Bft) 98,00 %
03.04.2017 05:20 8,7 C 85 % 1019,0 hPa 0,0 l/m 1,0 km/h (0 Bft) S-SW 197 0 min 0,000 mm 0,0 UV-I 0 W/m 6,3 C 8,7 C 3,2 km/h (1 Bft) 96,00 %
03.04.2017 05:22 8,7 C 85 % 1019,0 hPa 0,0 l/m 0,5 km/h (0 Bft) S-SW 197 0 min 0,000 mm 0,0 UV-I 0 W/m 6,3 C 8,7 C 1,6 km/h (1 Bft) 97,37 %
03.04.2017 05:24 8,7 C 85 % 1019,1 hPa 0,0 l/m 1,1 km/h (1 Bft) S-SW 197 0 min 0,000 mm 0,0 UV-I 0 W/m 6,3 C 8,7 C 3,2 km/h (1 Bft) 98,21 %
03.04.2017 05:26 8,7 C 85 % 1019,1 hPa 0,0 l/m 3,1 km/h (1 Bft) S-SW 196 0 min 0,000 mm 0,0 UV-I 0 W/m 6,3 C 8,7 C 4,8 km/h (1 Bft) 94,74 %
03.04.2017 05:28 8,8 C 85 % 1019,1 hPa 0,0 l/m 3,8 km/h (1 Bft) S-SW 196 0 min 0,000 mm 0,0 UV-I 0 W/m 6,4 C 8,8 C 6,4 km/h (2 Bft) 96,43 %
03.04.2017 05:30 8,8 C 84 % 1019,2 hPa 0,0 l/m 1,2 km/h (1 Bft) S-SW 196 0 min 0,000 mm 0,0 UV-I 0 W/m 6,2 C 8,8 C 4,8 km/h (1 Bft) 94,74 %
03.04.2017 05:32 8,8 C 84 % 1019,1 hPa 0,0 l/m 1,7 km/h (1 Bft) S-SW 196 0 min 0,000 mm 0,0 UV-I 0 W/m 6,2 C 8,8 C 4,8 km/h (1 Bft) 94,34 %
03.04.2017 05:34 8,8 C 84 % 1019,1 hPa 0,0 l/m 3,9 km/h (1 Bft) S-SW 196 0 min 0,000 mm 0,0 UV-I 0 W/m 6,2 C 8,8 C 4,8 km/h (1 Bft) 97,87 %
03.04.2017 05:36 8,8 C 84 % 1019,1 hPa 0,0 l/m 2,0 km/h (1 Bft) S-SW 196 0 min 0,000 mm 0,0 UV-I 0 W/m 6,2 C 8,8 C 4,8 km/h (1 Bft) 93,62 %
03.04.2017 05:38 8,7 C 84 % 1019,1 hPa 0,0 l/m 0,6 km/h (0 Bft) S-SW 196 0 min 0,000 mm 0,0 UV-I 0 W/m 6,2 C 8,7 C 3,2 km/h (1 Bft) 86,00 %
03.04.2017 05:40 8,7 C 85 % 1019,1 hPa 0,0 l/m 3,1 km/h (1 Bft) S-SW 196 0 min 0,000 mm 0,0 UV-I 0 W/m 6,3 C 8,7 C 4,8 km/h (1 Bft) 97,87 %
03.04.2017 05:42 8,7 C 85 % 1019,1 hPa 0,0 l/m 3,4 km/h (1 Bft) S-SW 196 0 min 0,000 mm 0,0 UV-I 0 W/m 6,3 C 8,7 C 4,8 km/h (1 Bft) 94,87 %
03.04.2017 05:44 8,7 C 85 % 1019,2 hPa 0,0 l/m 3,2 km/h (1 Bft) S-SW 196 0 min 0,000 mm 0,0 UV-I 0 W/m 6,3 C 8,7 C 4,8 km/h (1 Bft) 95,74 %
03.04.2017 05:46 8,7 C 85 % 1019,2 hPa 0,0 l/m 1,0 km/h (0 Bft) S-SW 196 0 min 0,000 mm 0,0 UV-I 0 W/m 6,3 C 8,7 C 4,8 km/h (1 Bft) 94,00 %
03.04.2017 05:48 8,7 C 85 % 1019,2 hPa 0,0 l/m 2,4 km/h (1 Bft) S-SW 196 0 min 0,000 mm 0,0 UV-I 0 W/m 6,3 C 8,7 C 3,2 km/h (1 Bft) 97,37 %
03.04.2017 05:50 8,6 C 85 % 1019,2 hPa 0,0 l/m 3,0 km/h (1 Bft) S-SW 196 0 min 0,000 mm 0,0 UV-I 0 W/m 6,2 C 8,6 C 4,8 km/h (1 Bft) 94,00 %
03.04.2017 05:52 8,6 C 85 % 1019,2 hPa 0,0 l/m 1,3 km/h (1 Bft) S-SW 196 0 min 0,000 mm 0,0 UV-I 0 W/m 6,2 C 8,6 C 3,2 km/h (1 Bft) 98,00 %
03.04.2017 05:54 8,4 C 85 % 1019,2 hPa 0,0 l/m 0,5 km/h (0 Bft) S-SW 196 0 min 0,000 mm 0,0 UV-I 0 W/m 6,0 C 8,4 C 1,6 km/h (1 Bft) 95,12 %
03.04.2017 05:56 8,4 C 86 % 1019,2 hPa 0,0 l/m 0,6 km/h (0 Bft) S-SW 196 0 min 0,000 mm 0,0 UV-I 0 W/m 6,2 C 8,4 C 3,2 km/h (1 Bft) 96,00 %
03.04.2017 05:58 8,3 C 85 % 1019,2 hPa 0,0 l/m 3,4 km/h (1 Bft) S 184 0 min 0,000 mm 0,0 UV-I 0 W/m 5,9 C 8,3 C 4,8 km/h (1 Bft) 97,87 %
03.04.2017 06:00 8,3 C 86 % 1019,2 hPa 0,0 l/m 2,5 km/h (1 Bft) S 184 0 min 0,000 mm 0,0 UV-I 0 W/m 6,1 C 8,3 C 4,8 km/h (1 Bft) 98,11 %
03.04.2017 06:02 8,3 C 87 % 1019,3 hPa 0,0 l/m 3,3 km/h (1 Bft) S 183 0 min 0,000 mm 0,0 UV-I 0 W/m 6,3 C 8,3 C 4,8 km/h (1 Bft) 98,00 %
03.04.2017 06:04 8,4 C 86 % 1019,3 hPa 0,0 l/m 2,0 km/h (1 Bft) S 183 0 min 0,000 mm 0,0 UV-I 0 W/m 6,2 C 8,4 C 4,8 km/h (1 Bft) 100,00 %
03.04.2017 06:06 8,4 C 86 % 1019,3 hPa 0,0 l/m 2,9 km/h (1 Bft) S 183 0 min 0,000 mm 0,0 UV-I 0 W/m 6,2 C 8,4 C 4,8 km/h (1 Bft) 92,45 %
03.04.2017 06:08 8,4 C 86 % 1019,4 hPa 0,0 l/m 0,2 km/h (0 Bft) S 183 0 min 0,000 mm 0,0 UV-I 0 W/m 6,2 C 8,4 C 1,6 km/h (1 Bft) 100,00 %
03.04.2017 06:10 8,4 C 86 % 1019,4 hPa 0,0 l/m 0,6 km/h (0 Bft) S 183 0 min 0,000 mm 0,0 UV-I 0 W/m 6,2 C 8,4 C 1,6 km/h (1 Bft) 97,14 %
03.04.2017 06:12 8,4 C 86 % 1019,4 hPa 0,0 l/m 1,0 km/h (0 Bft) S 183 0 min 0,000 mm 0,0 UV-I 0 W/m 6,2 C 8,4 C 3,2 km/h (1 Bft) 98,21 %
03.04.2017 06:14 8,4 C 86 % 1019,4 hPa 0,0 l/m 2,3 km/h (1 Bft) S 183 0 min 0,000 mm 0,0 UV-I 0 W/m 6,2 C 8,4 C 3,2 km/h (1 Bft) 94,74 %
03.04.2017 06:16 8,4 C 86 % 1019,4 hPa 0,0 l/m 2,3 km/h (1 Bft) S 183 0 min 0,000 mm 0,0 UV-I 0 W/m 6,2 C 8,4 C 4,8 km/h (1 Bft) 97,22 %
03.04.2017 06:18 8,4 C 86 % 1019,4 hPa 0,0 l/m 2,6 km/h (1 Bft) S 183 0 min 0,000 mm 0,0 UV-I 0 W/m 6,2 C 8,4 C 4,8 km/h (1 Bft) 96,88 %
03.04.2017 06:20 8,3 C 86 % 1019,5 hPa 0,0 l/m 2,6 km/h (1 Bft) S 183 0 min 0,000 mm 0,0 UV-I 0 W/m 6,1 C 8,3 C 4,8 km/h (1 Bft) 98,00 %
03.04.2017 06:22 8,3 C 86 % 1019,5 hPa 0,0 l/m 4,1 km/h (1 Bft) S 183 0 min 0,000 mm 0,0 UV-I 0 W/m 6,1 C 8,3 C 8,0 km/h (2 Bft) 91,67 %
03.04.2017 06:24 8,3 C 86 % 1019,5 hPa 0,0 l/m 3,6 km/h (1 Bft) S 183 0 min 0,000 mm 0,0 UV-I 0 W/m 6,1 C 8,3 C 6,4 km/h (2 Bft) 94,34 %
03.04.2017 06:26 8,2 C 86 % 1019,5 hPa 0,0 l/m 2,8 km/h (1 Bft) S 183 0 min 0,000 mm 0,0 UV-I 3 W/m 6,0 C 8,2 C 6,4 km/h (2 Bft) 97,56 %
03.04.2017 06:28 8,1 C 87 % 1019,6 hPa 0,0 l/m 3,0 km/h (1 Bft) S 183 0 min 0,000 mm 0,0 UV-I 5 W/m 6,1 C 8,1 C 4,8 km/h (1 Bft) 92,86 %
03.04.2017 06:30 8,1 C 87 % 1019,5 hPa 0,0 l/m 3,2 km/h (1 Bft) S 183 0 min 0,000 mm 0,0 UV-I 5 W/m 6,1 C 8,1 C 4,8 km/h (1 Bft) 90,24 %
03.04.2017 06:32 8,2 C 87 % 1019,6 hPa 0,0 l/m 3,3 km/h (1 Bft) S 183 0 min 0,000 mm 0,0 UV-I 5 W/m 6,2 C 8,2 C 6,4 km/h (2 Bft) 98,11 %
03.04.2017 06:34 8,2 C 87 % 1019,6 hPa 0,0 l/m 2,7 km/h (1 Bft) S 183 0 min 0,000 mm 0,0 UV-I 7 W/m 6,2 C 8,2 C 4,8 km/h (1 Bft) 92,11 %
03.04.2017 06:36 8,2 C 87 % 1019,6 hPa 0,0 l/m 1,6 km/h (1 Bft) S 183 0 min 0,000 mm 0,0 UV-I 7 W/m 6,2 C 8,2 C 4,8 km/h (1 Bft) 91,49 %
03.04.2017 06:38 8,2 C 86 % 1019,5 hPa 0,0 l/m 2,2 km/h (1 Bft) S 183 0 min 0,000 mm 0,0 UV-I 7 W/m 6,0 C 8,2 C 4,8 km/h (1 Bft) 96,23 %
03.04.2017 06:40 8,3 C 87 % 1019,6 hPa 0,0 l/m 2,7 km/h (1 Bft) S 178 0 min 0,000 mm 0,0 UV-I 9 W/m 6,3 C 8,3 C 6,4 km/h (2 Bft) 92,68 %
03.04.2017 06:42 8,3 C 87 % 1019,5 hPa 0,0 l/m 3,3 km/h (1 Bft) S 178 0 min 0,000 mm 0,0 UV-I 9 W/m 6,3 C 8,3 C 4,8 km/h (1 Bft) 96,43 %
03.04.2017 06:44 8,4 C 87 % 1019,5 hPa 0,0 l/m 4,1 km/h (1 Bft) S 180 0 min 0,000 mm 0,0 UV-I 11 W/m 6,4 C 8,4 C 8,0 km/h (2 Bft) 97,56 %
03.04.2017 06:46 8,4 C 86 % 1019,6 hPa 0,0 l/m 4,3 km/h (1 Bft) S 175 0 min 0,000 mm 0,0 UV-I 12 W/m 6,2 C 8,4 C 9,7 km/h (2 Bft) 93,62 %
03.04.2017 06:48 8,5 C 86 % 1019,6 hPa 0,0 l/m 2,4 km/h (1 Bft) S 175 2 min 0,000 mm 0,0 UV-I 15 W/m 6,3 C 8,5 C 6,4 km/h (2 Bft) 98,11 %
03.04.2017 06:50 8,6 C 86 % 1019,6 hPa 0,0 l/m 1,3 km/h (1 Bft) S 175 2 min 0,000 mm 0,0 UV-I 18 W/m 6,4 C 8,6 C 3,2 km/h (1 Bft) 95,12 %
03.04.2017 06:52 8,6 C 86 % 1019,6 hPa 0,0 l/m 2,4 km/h (1 Bft) S 175 2 min 0,000 mm 0,0 UV-I 20 W/m 6,4 C 8,6 C 3,2 km/h (1 Bft) 92,00 %
03.04.2017 06:54 8,6 C 86 % 1019,6 hPa 0,0 l/m 4,0 km/h (1 Bft) S 176 2 min 0,000 mm 0,0 UV-I 23 W/m 6,4 C 8,6 C 8,0 km/h (2 Bft) 97,56 %
03.04.2017 06:56 8,7 C 86 % 1019,6 hPa 0,0 l/m 2,9 km/h (1 Bft) S 176 2 min 0,000 mm 0,0 UV-I 25 W/m 6,5 C 8,7 C 4,8 km/h (1 Bft) 100,00 %
03.04.2017 06:58 8,7 C 85 % 1019,6 hPa 0,0 l/m 2,8 km/h (1 Bft) S 177 2 min 0,000 mm 0,0 UV-I 25 W/m 6,3 C 8,7 C 8,0 km/h (2 Bft) 96,23 %
03.04.2017 07:00 8,7 C 85 % 1019,6 hPa 0,0 l/m 3,8 km/h (1 Bft) S 176 0 min 0,000 mm 0,0 UV-I 26 W/m 6,3 C 8,7 C 6,4 km/h (2 Bft) 92,11 %
03.04.2017 07:02 8,7 C 85 % 1019,7 hPa 0,0 l/m 1,9 km/h (1 Bft) S 176 0 min 0,000 mm 0,0 UV-I 26 W/m 6,3 C 8,7 C 4,8 km/h (1 Bft) 100,00 %
03.04.2017 07:04 8,7 C 85 % 1019,8 hPa 0,0 l/m 1,2 km/h (1 Bft) S 176 0 min 0,000 mm 0,0 UV-I 29 W/m 6,3 C 8,7 C 3,2 km/h (1 Bft) 98,31 %
03.04.2017 07:06 8,7 C 85 % 1019,8 hPa 0,0 l/m 1,2 km/h (1 Bft) S 176 0 min 0,000 mm 0,0 UV-I 33 W/m 6,3 C 8,7 C 3,2 km/h (1 Bft) 97,56 %
03.04.2017 07:08 8,6 C 86 % 1019,9 hPa 0,0 l/m 2,6 km/h (1 Bft) S 176 0 min 0,000 mm 0,0 UV-I 34 W/m 6,4 C 8,6 C 4,8 km/h (1 Bft) 98,11 %
03.04.2017 07:10 8,6 C 86 % 1019,8 hPa 0,0 l/m 3,0 km/h (1 Bft) S 176 0 min 0,000 mm 0,0 UV-I 38 W/m 6,4 C 8,6 C 4,8 km/h (1 Bft) 100,00 %
03.04.2017 07:12 8,6 C 86 % 1019,8 hPa 0,0 l/m 2,9 km/h (1 Bft) S 176 0 min 0,000 mm 0,0 UV-I 42 W/m 6,4 C 8,6 C 4,8 km/h (1 Bft) 98,00 %
03.04.2017 07:14 8,6 C 86 % 1019,9 hPa 0,0 l/m 3,0 km/h (1 Bft) S 176 0 min 0,000 mm 0,0 UV-I 47 W/m 6,4 C 8,6 C 4,8 km/h (1 Bft) 97,73 %
03.04.2017 07:16 8,5 C 86 % 1020,0 hPa 0,0 l/m 4,1 km/h (1 Bft) S 176 0 min 0,000 mm 0,0 UV-I 52 W/m 6,3 C 8,5 C 6,4 km/h (2 Bft) 100,00 %
03.04.2017 07:18 8,4 C 86 % 1020,0 hPa 0,0 l/m 3,1 km/h (1 Bft) S 176 0 min 0,000 mm 0,0 UV-I 52 W/m 6,2 C 8,4 C 4,8 km/h (1 Bft) 100,00 %
03.04.2017 07:20 8,4 C 86 % 1020,0 hPa 0,0 l/m 2,1 km/h (1 Bft) S 176 0 min 0,000 mm 0,0 UV-I 53 W/m 6,2 C 8,4 C 3,2 km/h (1 Bft) 95,74 %
03.04.2017 07:22 8,4 C 86 % 1020,0 hPa 0,0 l/m 2,3 km/h (1 Bft) S 176 0 min 0,000 mm 0,0 UV-I 54 W/m 6,2 C 8,4 C 4,8 km/h (1 Bft) 100,00 %
03.04.2017 07:24 8,5 C 86 % 1020,0 hPa 0,0 l/m 2,7 km/h (1 Bft) S 176 0 min 0,000 mm 0,0 UV-I 58 W/m 6,3 C 8,5 C 4,8 km/h (1 Bft) 97,56 %
03.04.2017 07:26 8,7 C 86 % 1020,0 hPa 0,0 l/m 2,9 km/h (1 Bft) S 176 0 min 0,000 mm 0,0 UV-I 65 W/m 6,5 C 8,7 C 4,8 km/h (1 Bft) 100,00 %
03.04.2017 07:28 8,8 C 86 % 1020,0 hPa 0,0 l/m 2,1 km/h (1 Bft) S 176 0 min 0,000 mm 0,0 UV-I 71 W/m 6,6 C 8,8 C 3,2 km/h (1 Bft) 97,87 %
03.04.2017 07:30 8,9 C 86 % 1020,0 hPa 0,0 l/m 2,7 km/h (1 Bft) S 175 0 min 0,000 mm 0,0 UV-I 75 W/m 6,7 C 8,9 C 6,4 km/h (2 Bft) 95,74 %
03.04.2017 07:32 8,9 C 85 % 1020,1 hPa 0,0 l/m 2,9 km/h (1 Bft) S 176 0 min 0,000 mm 0,0 UV-I 78 W/m 6,5 C 8,9 C 4,8 km/h (1 Bft) 100,00 %
03.04.2017 07:34 9,0 C 85 % 1020,1 hPa 0,0 l/m 1,2 km/h (1 Bft) S 176 0 min 0,000 mm 0,0 UV-I 81 W/m 6,6 C 9,0 C 3,2 km/h (1 Bft) 96,43 %
03.04.2017 07:36 9,1 C 85 % 1020,1 hPa 0,0 l/m 2,3 km/h (1 Bft) S 176 0 min 0,000 mm 0,0 UV-I 83 W/m 6,7 C 9,1 C 4,8 km/h (1 Bft) 97,56 %
03.04.2017 07:38 9,1 C 85 % 1020,1 hPa 0,0 l/m 3,0 km/h (1 Bft) S 175 2 min 0,000 mm 0,0 UV-I 88 W/m 6,7 C 9,1 C 4,8 km/h (1 Bft) 98,11 %
03.04.2017 07:40 9,2 C 85 % 1020,1 hPa 0,0 l/m 3,0 km/h (1 Bft) S 175 2 min 0,000 mm 0,0 UV-I 103 W/m 6,8 C 9,2 C 4,8 km/h (1 Bft) 95,24 %
03.04.2017 07:42 9,2 C 85 % 1020,1 hPa 0,0 l/m 2,9 km/h (1 Bft) S 175 2 min 0,000 mm 0,0 UV-I 114 W/m 6,8 C 9,2 C 4,8 km/h (1 Bft) 98,00 %
03.04.2017 07:44 9,3 C 84 % 1020,1 hPa 0,0 l/m 3,9 km/h (1 Bft) S 176 2 min 0,000 mm 0,0 UV-I 118 W/m 6,7 C 9,3 C 6,4 km/h (2 Bft) 93,62 %
03.04.2017 07:46 9,4 C 84 % 1020,2 hPa 0,0 l/m 3,4 km/h (1 Bft) S 176 2 min 0,000 mm 0,0 UV-I 121 W/m 6,8 C 9,4 C 4,8 km/h (1 Bft) 97,87 %
03.04.2017 07:48 9,5 C 84 % 1020,2 hPa 0,0 l/m 3,5 km/h (1 Bft) S 176 2 min 0,000 mm 0,0 UV-I 123 W/m 6,9 C 9,5 C 6,4 km/h (2 Bft) 97,56 %
03.04.2017 07:50 9,6 C 84 % 1020,2 hPa 0,0 l/m 4,2 km/h (1 Bft) S 177 2 min 0,000 mm 0,0 UV-I 127 W/m 7,0 C 9,6 C 6,4 km/h (2 Bft) 97,87 %
03.04.2017 07:52 9,7 C 84 % 1020,2 hPa 0,0 l/m 5,4 km/h (1 Bft) S 185 2 min 0,000 mm 0,0 UV-I 132 W/m 7,1 C 9,7 C 9,7 km/h (2 Bft) 100,00 %
03.04.2017 07:54 9,7 C 83 % 1020,3 hPa 0,0 l/m 5,1 km/h (1 Bft) S 189 2 min 0,000 mm 0,0 UV-I 137 W/m 7,0 C 9,7 C 8,0 km/h (2 Bft) 97,87 %
03.04.2017 07:56 9,7 C 83 % 1020,3 hPa 0,0 l/m 3,3 km/h (1 Bft) S 190 2 min 0,000 mm 0,0 UV-I 137 W/m 7,0 C 9,7 C 6,4 km/h (2 Bft) 100,00 %
03.04.2017 07:58 9,8 C 83 % 1020,3 hPa 0,0 l/m 3,9 km/h (1 Bft) S 190 2 min 0,000 mm 0,0 UV-I 148 W/m 7,1 C 9,8 C 6,4 km/h (2 Bft) 98,00 %
03.04.2017 08:00 9,8 C 83 % 1020,3 hPa 0,0 l/m 3,8 km/h (1 Bft) S 190 2 min 0,051 mm 0,0 UV-I 154 W/m 7,1 C 9,8 C 6,4 km/h (2 Bft) 97,14 %
03.04.2017 08:02 9,8 C 83 % 1020,4 hPa 0,0 l/m 4,1 km/h (1 Bft) S 190 2 min 0,000 mm 0,0 UV-I 158 W/m 7,1 C 9,8 C 6,4 km/h (2 Bft) 96,23 %
03.04.2017 08:04 9,8 C 83 % 1020,4 hPa 0,0 l/m 3,3 km/h (1 Bft) S 190 2 min 0,000 mm 0,0 UV-I 154 W/m 7,1 C 9,8 C 4,8 km/h (1 Bft) 98,00 %
03.04.2017 08:06 9,9 C 83 % 1020,4 hPa 0,0 l/m 3,5 km/h (1 Bft) S 190 2 min 0,000 mm 0,0 UV-I 156 W/m 7,2 C 9,9 C 4,8 km/h (1 Bft) 100,00 %
03.04.2017 08:08 9,9 C 83 % 1020,4 hPa 0,0 l/m 2,2 km/h (1 Bft) S 190 2 min 0,000 mm 0,0 UV-I 155 W/m 7,2 C 9,9 C 4,8 km/h (1 Bft) 96,61 %
03.04.2017 08:10 10,0 C 83 % 1020,5 hPa 0,0 l/m 3,5 km/h (1 Bft) S 190 2 min 0,000 mm 0,0 UV-I 164 W/m 7,2 C 10,0 C 4,8 km/h (1 Bft) 97,37 %
03.04.2017 08:12 10,1 C 83 % 1020,4 hPa 0,0 l/m 3,1 km/h (1 Bft) S 190 2 min 0,000 mm 0,0 UV-I 158 W/m 7,3 C 10,1 C 6,4 km/h (2 Bft) 100,00 %
03.04.2017 08:14 10,2 C 83 % 1020,5 hPa 0,0 l/m 3,0 km/h (1 Bft) S 190 0 min 0,000 mm 0,0 UV-I 132 W/m 7,4 C 10,2 C 4,8 km/h (1 Bft) 95,83 %
03.04.2017 08:16 10,3 C 83 % 1020,5 hPa 0,0 l/m 4,1 km/h (1 Bft) S 188 2 min 0,000 mm 0,0 UV-I 150 W/m 7,5 C 10,3 C 6,4 km/h (2 Bft) 100,00 %
03.04.2017 08:18 10,3 C 83 % 1020,5 hPa 0,0 l/m 3,1 km/h (1 Bft) S 188 2 min 0,000 mm 0,0 UV-I 166 W/m 7,5 C 10,3 C 4,8 km/h (1 Bft) 96,00 %
03.04.2017 08:20 10,4 C 83 % 1020,4 hPa 0,0 l/m 3,0 km/h (1 Bft) S 188 2 min 0,000 mm 0,0 UV-I 177 W/m 7,6 C 10,4 C 6,4 km/h (2 Bft) 95,83 %
03.04.2017 08:22 10,5 C 83 % 1020,5 hPa 0,0 l/m 4,5 km/h (1 Bft) S 188 2 min 0,000 mm 0,0 UV-I 182 W/m 7,7 C 10,5 C 6,4 km/h (2 Bft) 97,56 %
03.04.2017 08:24 10,6 C 82 % 1020,5 hPa 0,0 l/m 3,0 km/h (1 Bft) S 188 2 min 0,000 mm 0,0 UV-I 191 W/m 7,7 C 10,6 C 4,8 km/h (1 Bft) 96,00 %
03.04.2017 08:26 10,7 C 82 % 1020,4 hPa 0,0 l/m 3,2 km/h (1 Bft) S 188 2 min 0,000 mm 0,0 UV-I 195 W/m 7,8 C 10,7 C 4,8 km/h (1 Bft) 96,00 %
03.04.2017 08:28 10,8 C 82 % 1020,5 hPa 0,0 l/m 1,5 km/h (1 Bft) S 188 2 min 0,000 mm 0,0 UV-I 190 W/m 7,9 C 10,8 C 3,2 km/h (1 Bft) 97,37 %
03.04.2017 08:30 10,8 C 82 % 1020,5 hPa 0,0 l/m 0,5 km/h (0 Bft) S 188 2 min 0,000 mm 0,0 UV-I 201 W/m 7,9 C 10,8 C 1,6 km/h (1 Bft) 96,00 %
03.04.2017 08:32 10,9 C 82 % 1020,5 hPa 0,0 l/m 2,0 km/h (1 Bft) S 188 2 min 0,000 mm 0,0 UV-I 205 W/m 7,9 C 10,9 C 4,8 km/h (1 Bft) 97,87 %
03.04.2017 08:34 11,1 C 82 % 1020,5 hPa 0,0 l/m 0,5 km/h (0 Bft) S 188 2 min 0,000 mm 0,0 UV-I 194 W/m 8,1 C 11,1 C 1,6 km/h (1 Bft) 97,37 %
03.04.2017 08:36 11,1 C 81 % 1020,5 hPa 0,0 l/m 1,6 km/h (1 Bft) S 188 2 min 0,000 mm 0,0 UV-I 179 W/m 8,0 C 11,1 C 3,2 km/h (1 Bft) 96,00 %
03.04.2017 08:38 11,1 C 81 % 1020,5 hPa 0,0 l/m 1,7 km/h (1 Bft) S 188 0 min 0,000 mm 0,0 UV-I 168 W/m 8,0 C 11,1 C 3,2 km/h (1 Bft) 98,00 %
03.04.2017 08:40 11,1 C 82 % 1020,5 hPa 0,0 l/m 2,1 km/h (1 Bft) S 188 2 min 0,000 mm 0,0 UV-I 193 W/m 8,1 C 11,1 C 4,8 km/h (1 Bft) 98,00 %
03.04.2017 08:42 11,2 C 82 % 1020,5 hPa 0,0 l/m 2,8 km/h (1 Bft) S 188 2 min 0,000 mm 0,0 UV-I 194 W/m 8,2 C 11,2 C 4,8 km/h (1 Bft) 94,00 %
03.04.2017 08:44 11,2 C 82 % 1020,6 hPa 0,0 l/m 3,5 km/h (1 Bft) S 188 0 min 0,000 mm 0,0 UV-I 177 W/m 8,2 C 11,2 C 6,4 km/h (2 Bft) 91,49 %
03.04.2017 08:46 11,3 C 82 % 1020,6 hPa 0,0 l/m 3,3 km/h (1 Bft) S 188 2 min 0,000 mm 0,0 UV-I 198 W/m 8,3 C 11,3 C 4,8 km/h (1 Bft) 97,56 %
03.04.2017 08:48 11,3 C 82 % 1020,5 hPa 0,0 l/m 4,7 km/h (1 Bft) S-SW 192 2 min 0,000 mm 0,0 UV-I 238 W/m 8,3 C 11,3 C 9,7 km/h (2 Bft) 98,00 %
03.04.2017 08:50 11,4 C 82 % 1020,6 hPa 0,0 l/m 4,4 km/h (1 Bft) S-SW 192 2 min 0,000 mm 0,4 UV-I 254 W/m 8,4 C 11,4 C 6,4 km/h (2 Bft) 97,56 %
03.04.2017 08:52 11,6 C 82 % 1020,5 hPa 0,0 l/m 5,3 km/h (1 Bft) S-SW 195 2 min 0,000 mm 0,5 UV-I 263 W/m 8,6 C 11,6 C 6,4 km/h (2 Bft) 100,00 %
03.04.2017 08:54 11,7 C 82 % 1020,6 hPa 0,0 l/m 3,0 km/h (1 Bft) S-SW 195 2 min 0,000 mm 0,5 UV-I 280 W/m 8,7 C 11,7 C 6,4 km/h (2 Bft) 95,74 %
03.04.2017 08:56 11,8 C 82 % 1020,6 hPa 0,0 l/m 4,6 km/h (1 Bft) S-SW 201 2 min 0,000 mm 0,5 UV-I 305 W/m 8,8 C 11,8 C 6,4 km/h (2 Bft) 94,34 %
03.04.2017 08:58 12,0 C 81 % 1020,6 hPa 0,0 l/m 3,6 km/h (1 Bft) S-SW 202 2 min 0,000 mm 0,5 UV-I 327 W/m 8,8 C 12,0 C 4,8 km/h (1 Bft) 94,44 %
03.04.2017 09:00 12,1 C 81 % 1020,7 hPa 0,0 l/m 3,1 km/h (1 Bft) S-SW 202 2 min 0,101 mm 0,5 UV-I 332 W/m 8,9 C 12,1 C 4,8 km/h (1 Bft) 98,11 %
03.04.2017 09:02 12,2 C 80 % 1020,7 hPa 0,0 l/m 4,0 km/h (1 Bft) S-SW 202 2 min 0,000 mm 0,5 UV-I 307 W/m 8,9 C 12,2 C 4,8 km/h (1 Bft) 98,00 %
03.04.2017 09:04 12,2 C 80 % 1020,6 hPa 0,0 l/m 3,3 km/h (1 Bft) S-SW 202 2 min 0,000 mm 0,5 UV-I 286 W/m 8,9 C 12,2 C 6,4 km/h (2 Bft) 95,12 %
03.04.2017 09:06 12,2 C 80 % 1020,7 hPa 0,0 l/m 2,0 km/h (1 Bft) S-SW 202 2 min 0,000 mm 0,6 UV-I 324 W/m 8,9 C 12,2 C 4,8 km/h (1 Bft) 96,23 %
03.04.2017 09:08 12,3 C 81 % 1020,7 hPa 0,0 l/m 1,9 km/h (1 Bft) S-SW 202 2 min 0,000 mm 0,6 UV-I 362 W/m 9,1 C 12,3 C 3,2 km/h (1 Bft) 88,46 %
03.04.2017 09:10 12,5 C 80 % 1020,7 hPa 0,0 l/m 2,1 km/h (1 Bft) S-SW 202 2 min 0,000 mm 0,6 UV-I 358 W/m 9,1 C 12,5 C 4,8 km/h (1 Bft) 95,24 %
03.04.2017 09:12 12,6 C 79 % 1020,7 hPa 0,0 l/m 3,3 km/h (1 Bft) S-SW 202 2 min 0,000 mm 0,6 UV-I 378 W/m 9,1 C 12,6 C 4,8 km/h (1 Bft) 94,29 %
03.04.2017 09:14 12,7 C 78 % 1020,7 hPa 0,0 l/m 3,3 km/h (1 Bft) S-SW 202 2 min 0,000 mm 0,6 UV-I 396 W/m 9,0 C 12,7 C 4,8 km/h (1 Bft) 95,59 %
03.04.2017 09:16 12,8 C 79 % 1020,7 hPa 0,0 l/m 4,1 km/h (1 Bft) S-SW 205 2 min 0,000 mm 0,6 UV-I 427 W/m 9,2 C 12,8 C 6,4 km/h (2 Bft) 95,45 %
03.04.2017 09:18 12,9 C 78 % 1020,7 hPa 0,0 l/m 4,1 km/h (1 Bft) SW 217 2 min 0,000 mm 0,7 UV-I 442 W/m 9,2 C 12,9 C 4,8 km/h (1 Bft) 97,87 %
03.04.2017 09:20 13,1 C 79 % 1020,7 hPa 0,0 l/m 4,1 km/h (1 Bft) SW 221 2 min 0,000 mm 0,7 UV-I 444 W/m 9,5 C 13,1 C 6,4 km/h (2 Bft) 95,74 %
03.04.2017 09:22 13,2 C 79 % 1020,8 hPa 0,0 l/m 4,4 km/h (1 Bft) SW 234 2 min 0,000 mm 0,8 UV-I 443 W/m 9,6 C 13,2 C 6,4 km/h (2 Bft) 95,45 %
03.04.2017 09:24 13,4 C 77 % 1020,8 hPa 0,0 l/m 3,9 km/h (1 Bft) W-SW 255 2 min 0,000 mm 0,8 UV-I 429 W/m 9,5 C 13,4 C 6,4 km/h (2 Bft) 96,00 %
03.04.2017 09:26 13,4 C 77 % 1020,8 hPa 0,0 l/m 3,8 km/h (1 Bft) SW 229 2 min 0,000 mm 0,8 UV-I 398 W/m 9,5 C 13,4 C 6,4 km/h (2 Bft) 97,37 %
03.04.2017 09:28 13,4 C 77 % 1020,8 hPa 0,0 l/m 3,3 km/h (1 Bft) SW 225 2 min 0,000 mm 0,8 UV-I 362 W/m 9,5 C 13,4 C 4,8 km/h (1 Bft) 96,23 %
03.04.2017 09:30 13,4 C 76 % 1020,8 hPa 0,0 l/m 2,6 km/h (1 Bft) SW 225 2 min 0,000 mm 0,8 UV-I 359 W/m 9,3 C 13,4 C 4,8 km/h (1 Bft) 96,00 %
03.04.2017 09:32 13,6 C 76 % 1020,9 hPa 0,0 l/m 3,2 km/h (1 Bft) SW 225 2 min 0,000 mm 0,8 UV-I 372 W/m 9,4 C 13,6 C 4,8 km/h (1 Bft) 93,62 %
03.04.2017 09:34 13,5 C 75 % 1020,8 hPa 0,0 l/m 0,6 km/h (0 Bft) SW 225 2 min 0,000 mm 0,8 UV-I 372 W/m 9,2 C 13,5 C 3,2 km/h (1 Bft) 97,22 %
03.04.2017 09:36 13,4 C 76 % 1020,9 hPa 0,0 l/m 0,0 km/h (0 Bft) SW 225 2 min 0,000 mm 0,8 UV-I 349 W/m 9,3 C 13,4 C 0,0 km/h (0 Bft) 90,20 %
03.04.2017 09:38 13,6 C 77 % 1020,9 hPa 0,0 l/m 0,1 km/h (0 Bft) SW 225 2 min 0,000 mm 0,8 UV-I 326 W/m 9,6 C 13,6 C 1,6 km/h (1 Bft) 92,31 %
03.04.2017 09:40 13,7 C 76 % 1020,9 hPa 0,0 l/m 0,0 km/h (0 Bft) SW 225 2 min 0,000 mm 0,8 UV-I 324 W/m 9,5 C 13,7 C 0,0 km/h (0 Bft) 95,83 %
03.04.2017 09:42 13,7 C 75 % 1020,9 hPa 0,0 l/m 3,5 km/h (1 Bft) S-SO 160 2 min 0,000 mm 0,8 UV-I 350 W/m 9,3 C 13,7 C 6,4 km/h (2 Bft) 95,12 %
03.04.2017 09:44 13,8 C 75 % 1020,9 hPa 0,0 l/m 0,8 km/h (0 Bft) S-SO 160 2 min 0,000 mm 0,8 UV-I 355 W/m 9,4 C 13,8 C 3,2 km/h (1 Bft) 96,00 %
03.04.2017 09:46 13,8 C 75 % 1020,9 hPa 0,0 l/m 1,7 km/h (1 Bft) S-SO 160 2 min 0,000 mm 0,8 UV-I 312 W/m 9,4 C 13,8 C 3,2 km/h (1 Bft) 96,00 %
03.04.2017 09:48 13,9 C 75 % 1020,9 hPa 0,0 l/m 1,6 km/h (1 Bft) S-SO 160 2 min 0,000 mm 0,7 UV-I 287 W/m 9,5 C 13,9 C 3,2 km/h (1 Bft) 97,37 %
03.04.2017 09:50 13,8 C 74 % 1021,0 hPa 0,0 l/m 1,9 km/h (1 Bft) S-SO 160 0 min 0,000 mm 0,7 UV-I 266 W/m 9,2 C 13,8 C 3,2 km/h (1 Bft) 96,23 %
03.04.2017 09:52 13,7 C 75 % 1020,9 hPa 0,0 l/m 0,8 km/h (0 Bft) S-SO 160 0 min 0,000 mm 0,7 UV-I 241 W/m 9,3 C 13,7 C 3,2 km/h (1 Bft) 100,00 %
03.04.2017 09:54 13,7 C 76 % 1020,9 hPa 0,0 l/m 1,9 km/h (1 Bft) S-SO 160 0 min 0,000 mm 0,7 UV-I 227 W/m 9,5 C 13,7 C 3,2 km/h (1 Bft) 95,74 %
03.04.2017 09:56 13,8 C 76 % 1020,9 hPa 0,0 l/m 2,0 km/h (1 Bft) O-SO 114 0 min 0,000 mm 0,7 UV-I 230 W/m 9,6 C 13,8 C 6,4 km/h (2 Bft) 100,00 %
03.04.2017 09:58 13,7 C 76 % 1020,9 hPa 0,0 l/m 2,9 km/h (1 Bft) O-SO 110 0 min 0,000 mm 0,7 UV-I 238 W/m 9,5 C 13,7 C 4,8 km/h (1 Bft) 95,74 %
03.04.2017 10:00 13,7 C 76 % 1020,9 hPa 0,0 l/m 1,8 km/h (1 Bft) O-SO 110 0 min 0,000 mm 0,7 UV-I 231 W/m 9,5 C 13,7 C 3,2 km/h (1 Bft) 97,87 %
03.04.2017 10:02 13,7 C 76 % 1020,9 hPa 0,0 l/m 1,4 km/h (1 Bft) O-SO 110 0 min 0,178 mm 0,7 UV-I 218 W/m 9,5 C 13,7 C 3,2 km/h (1 Bft) 95,12 %
03.04.2017 10:04 13,7 C 76 % 1020,9 hPa 0,0 l/m 1,2 km/h (1 Bft) O-SO 110 0 min 0,000 mm 0,7 UV-I 211 W/m 9,5 C 13,7 C 3,2 km/h (1 Bft) 98,11 %
03.04.2017 10:06 13,6 C 75 % 1020,9 hPa 0,0 l/m 2,3 km/h (1 Bft) O-SO 110 0 min 0,000 mm 0,7 UV-I 208 W/m 9,3 C 13,6 C 3,2 km/h (1 Bft) 97,87 %
03.04.2017 10:08 13,6 C 75 % 1020,9 hPa 0,0 l/m 0,1 km/h (0 Bft) O-SO 110 0 min 0,000 mm 0,7 UV-I 207 W/m 9,3 C 13,6 C 1,6 km/h (1 Bft) 97,56 %
03.04.2017 10:10 13,6 C 76 % 1020,9 hPa 0,0 l/m 3,0 km/h (1 Bft) O-SO 110 0 min 0,000 mm 0,7 UV-I 207 W/m 9,4 C 13,6 C 6,4 km/h (2 Bft) 98,00 %
03.04.2017 10:12 13,6 C 76 % 1020,9 hPa 0,0 l/m 4,0 km/h (1 Bft) O-NO 67 0 min 0,000 mm 0,7 UV-I 213 W/m 9,4 C 13,6 C 6,4 km/h (2 Bft) 100,00 %
03.04.2017 10:14 13,7 C 77 % 1021,0 hPa 0,0 l/m 3,6 km/h (1 Bft) O-NO 64 0 min 0,000 mm 0,7 UV-I 226 W/m 9,7 C 13,7 C 6,4 km/h (2 Bft) 95,83 %
03.04.2017 10:16 13,8 C 76 % 1021,0 hPa 0,0 l/m 5,1 km/h (1 Bft) NO 50 0 min 0,000 mm 0,7 UV-I 234 W/m 9,6 C 13,8 C 8,0 km/h (2 Bft) 97,87 %
03.04.2017 10:18 13,8 C 75 % 1021,1 hPa 0,0 l/m 4,9 km/h (1 Bft) O-NO 71 0 min 0,000 mm 0,7 UV-I 223 W/m 9,4 C 13,8 C 8,0 km/h (2 Bft) 94,52 %
03.04.2017 10:20 13,7 C 75 % 1021,0 hPa 0,0 l/m 4,0 km/h (1 Bft) O-NO 71 0 min 0,000 mm 0,7 UV-I 213 W/m 9,3 C 13,7 C 6,4 km/h (2 Bft) 94,87 %
03.04.2017 10:22 13,7 C 76 % 1021,0 hPa 0,0 l/m 3,3 km/h (1 Bft) O-NO 71 0 min 0,000 mm 0,7 UV-I 205 W/m 9,5 C 13,7 C 4,8 km/h (1 Bft) 96,43 %
03.04.2017 10:24 13,6 C 75 % 1021,0 hPa 0,0 l/m 1,7 km/h (1 Bft) O-NO 71 0 min 0,000 mm 0,7 UV-I 200 W/m 9,3 C 13,6 C 3,2 km/h (1 Bft) 94,74 %
03.04.2017 10:26 13,6 C 76 % 1021,0 hPa 0,0 l/m 2,4 km/h (1 Bft) O-NO 71 0 min 0,000 mm 0,7 UV-I 201 W/m 9,4 C 13,6 C 4,8 km/h (1 Bft) 98,00 %
03.04.2017 10:28 13,7 C 76 % 1021,0 hPa 0,0 l/m 3,7 km/h (1 Bft) O-NO 73 0 min 0,000 mm 0,7 UV-I 207 W/m 9,5 C 13,7 C 4,8 km/h (1 Bft) 93,18 %
03.04.2017 10:30 13,7 C 75 % 1021,1 hPa 0,0 l/m 3,7 km/h (1 Bft) O-NO 73 0 min 0,000 mm 0,7 UV-I 202 W/m 9,3 C 13,7 C 6,4 km/h (2 Bft) 96,00 %
03.04.2017 10:32 13,7 C 75 % 1021,0 hPa 0,0 l/m 0,4 km/h (0 Bft) O-NO 73 0 min 0,000 mm 0,6 UV-I 183 W/m 9,3 C 13,7 C 1,6 km/h (1 Bft) 95,12 %
03.04.2017 10:34 13,6 C 75 % 1021,0 hPa 0,0 l/m 0,0 km/h (0 Bft) O-NO 73 0 min 0,000 mm 0,6 UV-I 167 W/m 9,3 C 13,6 C 0,0 km/h (0 Bft) 96,00 %
03.04.2017 10:36 13,6 C 77 % 1021,0 hPa 0,0 l/m 0,4 km/h (0 Bft) O-NO 73 0 min 0,000 mm 0,6 UV-I 154 W/m 9,6 C 13,6 C 1,6 km/h (1 Bft) 97,56 %
03.04.2017 10:38 13,7 C 77 % 1021,0 hPa 0,0 l/m 2,4 km/h (1 Bft) O-NO 66 0 min 0,000 mm 0,5 UV-I 147 W/m 9,7 C 13,7 C 6,4 km/h (2 Bft) 94,34 %
03.04.2017 10:40 13,7 C 77 % 1021,0 hPa 0,0 l/m 3,1 km/h (1 Bft) NO 36 0 min 0,000 mm 0,5 UV-I 148 W/m 9,7 C 13,7 C 4,8 km/h (1 Bft) 97,56 %
03.04.2017 10:42 13,6 C 76 % 1021,0 hPa 0,0 l/m 1,0 km/h (0 Bft) NO 34 0 min 0,000 mm 0,6 UV-I 156 W/m 9,4 C 13,6 C 3,2 km/h (1 Bft) 96,00 %
03.04.2017 10:44 13,6 C 77 % 1021,0 hPa 0,0 l/m 1,6 km/h (1 Bft) N-NO 32 0 min 0,000 mm 0,6 UV-I 169 W/m 9,6 C 13,6 C 3,2 km/h (1 Bft) 94,64 %
03.04.2017 10:46 13,6 C 78 % 1021,1 hPa 0,0 l/m 0,6 km/h (0 Bft) N-NO 32 0 min 0,000 mm 0,6 UV-I 172 W/m 9,8 C 13,6 C 3,2 km/h (1 Bft) 97,87 %
03.04.2017 10:48 13,6 C 78 % 1021,0 hPa 0,0 l/m 2,1 km/h (1 Bft) NW 314 0 min 0,000 mm 0,6 UV-I 172 W/m 9,8 C 13,6 C 4,8 km/h (1 Bft) 100,00 %
03.04.2017 10:50 13,7 C 78 % 1021,1 hPa 0,0 l/m 1,4 km/h (1 Bft) N 11 0 min 0,000 mm 0,6 UV-I 179 W/m 9,9 C 13,7 C 3,2 km/h (1 Bft) 98,11 %
03.04.2017 10:52 13,6 C 77 % 1021,1 hPa 0,0 l/m 1,2 km/h (1 Bft) N-NW 327 0 min 0,000 mm 0,7 UV-I 189 W/m 9,6 C 13,6 C 3,2 km/h (1 Bft) 100,00 %
03.04.2017 10:54 13,7 C 77 % 1021,1 hPa 0,0 l/m 0,9 km/h (0 Bft) N-NW 327 0 min 0,000 mm 0,7 UV-I 207 W/m 9,7 C 13,7 C 3,2 km/h (1 Bft) 100,00 %
03.04.2017 10:56 13,7 C 76 % 1021,1 hPa 0,0 l/m 0,5 km/h (0 Bft) N-NW 343 0 min 0,000 mm 0,9 UV-I 240 W/m 9,5 C 13,7 C 3,2 km/h (1 Bft) 98,00 %
03.04.2017 10:58 13,8 C 76 % 1021,1 hPa 0,0 l/m 0,0 km/h (0 Bft) N-NW 343 0 min 0,000 mm 1,0 UV-I 280 W/m 9,6 C 13,8 C 1,6 km/h (1 Bft) 98,00 %
03.04.2017 11:00 13,8 C 76 % 1021,0 hPa 0,0 l/m 2,2 km/h (1 Bft) N-NW 343 0 min 0,000 mm 1,2 UV-I 305 W/m 9,6 C 13,8 C 3,2 km/h (1 Bft) 100,00 %
03.04.2017 11:02 13,8 C 76 % 1021,1 hPa 0,0 l/m 1,9 km/h (1 Bft) N-NW 343 0 min 0,102 mm 1,2 UV-I 311 W/m 9,6 C 13,8 C 3,2 km/h (1 Bft) 100,00 %
03.04.2017 11:04 13,9 C 74 % 1021,1 hPa 0,0 l/m 0,9 km/h (0 Bft) N-NW 343 0 min 0,000 mm 1,3 UV-I 321 W/m 9,3 C 13,9 C 3,2 km/h (1 Bft) 98,11 %
03.04.2017 11:06 13,9 C 75 % 1021,1 hPa 0,0 l/m 0,2 km/h (0 Bft) N-NW 343 0 min 0,000 mm 1,3 UV-I 334 W/m 9,5 C 13,9 C 1,6 km/h (1 Bft) 100,00 %
03.04.2017 11:08 14,1 C 77 % 1021,1 hPa 0,0 l/m 0,2 km/h (0 Bft) N-NW 347 0 min 0,000 mm 1,3 UV-I 343 W/m 10,1 C 14,1 C 1,6 km/h (1 Bft) 95,74 %
03.04.2017 11:10 14,2 C 76 % 1021,1 hPa 0,0 l/m 0,1 km/h (0 Bft) N-NW 347 0 min 0,000 mm 1,4 UV-I 345 W/m 10,0 C 14,2 C 1,6 km/h (1 Bft) 97,56 %
03.04.2017 11:12 14,3 C 76 % 1021,1 hPa 0,0 l/m 1,0 km/h (0 Bft) N 349 0 min 0,000 mm 1,3 UV-I 333 W/m 10,1 C 14,3 C 3,2 km/h (1 Bft) 98,00 %
03.04.2017 11:14 14,3 C 76 % 1021,1 hPa 0,0 l/m 3,5 km/h (1 Bft) NW 313 0 min 0,000 mm 1,3 UV-I 319 W/m 10,1 C 14,3 C 11,3 km/h (2 Bft) 98,00 %
03.04.2017 11:16 14,3 C 75 % 1021,1 hPa 0,0 l/m 1,7 km/h (1 Bft) N 355 0 min 0,000 mm 1,3 UV-I 311 W/m 9,9 C 14,3 C 4,8 km/h (1 Bft) 97,73 %
03.04.2017 11:18 14,3 C 76 % 1021,1 hPa 0,0 l/m 1,3 km/h (1 Bft) N-NW 330 0 min 0,000 mm 1,3 UV-I 307 W/m 10,1 C 14,3 C 4,8 km/h (1 Bft) 97,87 %
03.04.2017 11:20 14,3 C 73 % 1021,1 hPa 0,0 l/m 2,0 km/h (1 Bft) N-NW 328 0 min 0,000 mm 1,3 UV-I 306 W/m 9,5 C 14,3 C 3,2 km/h (1 Bft) 97,73 %
03.04.2017 11:22 14,3 C 76 % 1021,1 hPa 0,0 l/m 0,7 km/h (0 Bft) N-NW 328 0 min 0,000 mm 1,3 UV-I 308 W/m 10,1 C 14,3 C 3,2 km/h (1 Bft) 98,00 %
03.04.2017 11:24 14,3 C 74 % 1021,1 hPa 0,0 l/m 2,9 km/h (1 Bft) N 351 0 min 0,000 mm 1,3 UV-I 306 W/m 9,7 C 14,3 C 6,4 km/h (2 Bft) 100,00 %
03.04.2017 11:26 14,2 C 74 % 1021,1 hPa 0,0 l/m 1,2 km/h (1 Bft) N 351 0 min 0,000 mm 1,3 UV-I 307 W/m 9,6 C 14,2 C 3,2 km/h (1 Bft) 97,37 %
03.04.2017 11:28 14,1 C 73 % 1021,1 hPa 0,0 l/m 0,3 km/h (0 Bft) N 351 0 min 0,000 mm 1,3 UV-I 311 W/m 9,3 C 14,1 C 1,6 km/h (1 Bft) 100,00 %
03.04.2017 11:30 14,0 C 73 % 1021,1 hPa 0,0 l/m 0,0 km/h (0 Bft) N 351 0 min 0,000 mm 1,4 UV-I 320 W/m 9,2 C 14,0 C 1,6 km/h (1 Bft) 97,87 %
03.04.2017 11:32 14,1 C 73 % 1021,1 hPa 0,0 l/m 0,0 km/h (0 Bft) N 351 0 min 0,000 mm 1,4 UV-I 331 W/m 9,3 C 14,1 C 0,0 km/h (0 Bft) 100,00 %
03.04.2017 11:34 14,2 C 75 % 1021,1 hPa 0,0 l/m 1,5 km/h (1 Bft) N 350 0 min 0,000 mm 1,5 UV-I 326 W/m 9,8 C 14,2 C 3,2 km/h (1 Bft) 98,00 %
03.04.2017 11:36 14,2 C 73 % 1021,1 hPa 0,0 l/m 1,2 km/h (1 Bft) N-NW 346 0 min 0,000 mm 1,4 UV-I 301 W/m 9,4 C 14,2 C 3,2 km/h (1 Bft) 97,87 %
03.04.2017 11:38 14,3 C 74 % 1021,1 hPa 0,0 l/m 0,8 km/h (0 Bft) N-NW 346 0 min 0,000 mm 1,4 UV-I 287 W/m 9,7 C 14,3 C 3,2 km/h (1 Bft) 92,86 %
03.04.2017 11:40 14,4 C 73 % 1021,1 hPa 0,0 l/m 0,5 km/h (0 Bft) N-NW 346 0 min 0,000 mm 1,4 UV-I 282 W/m 9,6 C 14,4 C 1,6 km/h (1 Bft) 98,00 %
03.04.2017 11:42 14,4 C 75 % 1021,1 hPa 0,0 l/m 1,7 km/h (1 Bft) N 355 0 min 0,000 mm 1,4 UV-I 275 W/m 10,0 C 14,4 C 4,8 km/h (1 Bft) 100,00 %
03.04.2017 11:44 14,4 C 74 % 1021,1 hPa 0,0 l/m 2,8 km/h (1 Bft) N-NO 13 0 min 0,000 mm 1,4 UV-I 274 W/m 9,8 C 14,4 C 4,8 km/h (1 Bft) 94,34 %
03.04.2017 11:46 14,4 C 75 % 1021,1 hPa 0,0 l/m 1,5 km/h (1 Bft) N-NO 13 0 min 0,000 mm 1,5 UV-I 279 W/m 10,0 C 14,4 C 4,8 km/h (1 Bft) 94,00 %
03.04.2017 11:48 14,5 C 77 % 1021,1 hPa 0,0 l/m 0,3 km/h (0 Bft) N 11 0 min 0,000 mm 1,6 UV-I 273 W/m 10,5 C 14,5 C 1,6 km/h (1 Bft) 94,00 %
03.04.2017 11:50 14,4 C 74 % 1021,1 hPa 0,0 l/m 0,8 km/h (0 Bft) N 9 0 min 0,000 mm 1,6 UV-I 260 W/m 9,8 C 14,4 C 3,2 km/h (1 Bft) 97,37 %
03.04.2017 11:52 14,4 C 75 % 1021,0 hPa 0,0 l/m 2,6 km/h (1 Bft) N 11 0 min 0,000 mm 1,6 UV-I 263 W/m 10,0 C 14,4 C 6,4 km/h (2 Bft) 96,00 %
03.04.2017 11:54 14,4 C 73 % 1021,0 hPa 0,0 l/m 1,8 km/h (1 Bft) N-NO 12 0 min 0,000 mm 1,6 UV-I 280 W/m 9,6 C 14,4 C 3,2 km/h (1 Bft) 100,00 %
03.04.2017 11:56 14,4 C 74 % 1021,1 hPa 0,0 l/m 0,4 km/h (0 Bft) N-NO 12 0 min 0,000 mm 1,6 UV-I 286 W/m 9,8 C 14,4 C 1,6 km/h (1 Bft) 98,11 %
03.04.2017 11:58 14,5 C 74 % 1021,1 hPa 0,0 l/m 1,6 km/h (1 Bft) N-NW 335 0 min 0,000 mm 1,7 UV-I 289 W/m 9,9 C 14,5 C 3,2 km/h (1 Bft) 98,00 %
03.04.2017 12:00 14,4 C 72 % 1021,0 hPa 0,0 l/m 2,1 km/h (1 Bft) NW 320 0 min 0,000 mm 1,7 UV-I 295 W/m 9,4 C 14,4 C 6,4 km/h (2 Bft) 100,00 %
03.04.2017 12:02 14,4 C 72 % 1021,0 hPa 0,0 l/m 3,4 km/h (1 Bft) NW 316 0 min 0,152 mm 1,8 UV-I 293 W/m 9,4 C 14,4 C 4,8 km/h (1 Bft) 100,00 %
03.04.2017 12:04 14,4 C 74 % 1021,0 hPa 0,0 l/m 0,5 km/h (0 Bft) NW 316 0 min 0,000 mm 1,8 UV-I 272 W/m 9,8 C 14,4 C 3,2 km/h (1 Bft) 100,00 %
03.04.2017 12:06 14,4 C 73 % 1020,9 hPa 0,0 l/m 2,7 km/h (1 Bft) NW 312 0 min 0,000 mm 1,8 UV-I 261 W/m 9,6 C 14,4 C 4,8 km/h (1 Bft) 94,34 %
03.04.2017 12:08 14,4 C 72 % 1021,0 hPa 0,0 l/m 2,8 km/h (1 Bft) NW 308 0 min 0,000 mm 1,8 UV-I 258 W/m 9,4 C 14,4 C 6,4 km/h (2 Bft) 96,00 %
03.04.2017 12:10 14,5 C 72 % 1021,0 hPa 0,0 l/m 2,7 km/h (1 Bft) NW 315 0 min 0,000 mm 1,8 UV-I 265 W/m 9,5 C 14,5 C 6,4 km/h (2 Bft) 100,00 %
03.04.2017 12:12 14,4 C 73 % 1020,9 hPa 0,0 l/m 1,6 km/h (1 Bft) NW 315 0 min 0,000 mm 1,8 UV-I 267 W/m 9,6 C 14,4 C 3,2 km/h (1 Bft) 100,00 %
03.04.2017 12:14 14,3 C 73 % 1020,9 hPa 0,0 l/m 0,1 km/h (0 Bft) NW 315 0 min 0,000 mm 1,8 UV-I 267 W/m 9,5 C 14,3 C 1,6 km/h (1 Bft) 100,00 %
03.04.2017 12:16 14,4 C 74 % 1020,9 hPa 0,0 l/m 0,1 km/h (0 Bft) NW 315 0 min 0,000 mm 1,8 UV-I 275 W/m 9,8 C 14,4 C 1,6 km/h (1 Bft) 100,00 %
03.04.2017 12:18 14,5 C 74 % 1020,9 hPa 0,0 l/m 1,0 km/h (0 Bft) NW 315 0 min 0,000 mm 1,9 UV-I 281 W/m 9,9 C 14,5 C 3,2 km/h (1 Bft) 98,46 %
03.04.2017 12:20 14,5 C 73 % 1020,9 hPa 0,0 l/m 2,2 km/h (1 Bft) NW 306 0 min 0,000 mm 1,9 UV-I 289 W/m 9,7 C 14,5 C 4,8 km/h (1 Bft) 95,12 %
03.04.2017 12:22 14,5 C 72 % 1020,9 hPa 0,0 l/m 3,3 km/h (1 Bft) W-NW 289 0 min 0,000 mm 2,0 UV-I 302 W/m 9,5 C 14,5 C 6,4 km/h (2 Bft) 95,74 %
03.04.2017 12:24 14,4 C 72 % 1020,9 hPa 0,0 l/m 1,8 km/h (1 Bft) S-SW 202 0 min 0,000 mm 2,1 UV-I 326 W/m 9,4 C 14,4 C 3,2 km/h (1 Bft) 98,00 %
03.04.2017 12:26 14,3 C 73 % 1020,9 hPa 0,0 l/m 0,4 km/h (0 Bft) S-SW 202 0 min 0,000 mm 2,1 UV-I 348 W/m 9,5 C 14,3 C 3,2 km/h (1 Bft) 98,00 %
03.04.2017 12:28 14,4 C 73 % 1020,9 hPa 0,0 l/m 1,3 km/h (1 Bft) SW 217 0 min 0,000 mm 2,2 UV-I 372 W/m 9,6 C 14,4 C 3,2 km/h (1 Bft) 92,00 %
03.04.2017 12:30 14,6 C 73 % 1020,9 hPa 0,0 l/m 3,8 km/h (1 Bft) S-SW 193 0 min 0,000 mm 2,1 UV-I 375 W/m 9,8 C 14,6 C 8,0 km/h (2 Bft) 97,73 %
03.04.2017 12:32 14,7 C 73 % 1020,9 hPa 0,0 l/m 3,9 km/h (1 Bft) S-SW 204 0 min 0,000 mm 2,1 UV-I 390 W/m 9,9 C 14,7 C 6,4 km/h (2 Bft) 95,45 %
03.04.2017 12:34 14,8 C 73 % 1020,8 hPa 0,0 l/m 7,5 km/h (2 Bft) S-SW 203 2 min 0,000 mm 2,1 UV-I 419 W/m 10,0 C 14,2 C 11,3 km/h (2 Bft) 96,23 %
03.04.2017 12:36 15,1 C 72 % 1020,8 hPa 0,0 l/m 7,3 km/h (2 Bft) S-SW 211 2 min 0,000 mm 2,2 UV-I 481 W/m 10,1 C 14,6 C 9,7 km/h (2 Bft) 93,62 %
03.04.2017 12:38 15,2 C 70 % 1020,8 hPa 0,0 l/m 4,7 km/h (1 Bft) S 173 2 min 0,000 mm 2,3 UV-I 498 W/m 9,8 C 15,2 C 9,7 km/h (2 Bft) 95,12 %
03.04.2017 12:40 15,2 C 72 % 1020,8 hPa 0,0 l/m 3,5 km/h (1 Bft) W-SW 252 2 min 0,000 mm 2,4 UV-I 586 W/m 10,2 C 15,2 C 6,4 km/h (2 Bft) 97,73 %
03.04.2017 12:42 15,5 C 71 % 1020,8 hPa 0,0 l/m 4,7 km/h (1 Bft) W-SW 240 2 min 0,000 mm 2,7 UV-I 864 W/m 10,3 C 15,5 C 8,0 km/h (2 Bft) 96,43 %
03.04.2017 12:44 15,7 C 70 % 1020,8 hPa 0,0 l/m 3,8 km/h (1 Bft) S-SW 197 2 min 0,000 mm 2,7 UV-I 871 W/m 10,2 C 15,7 C 6,4 km/h (2 Bft) 95,12 %
03.04.2017 12:46 15,8 C 68 % 1020,8 hPa 0,0 l/m 4,2 km/h (1 Bft) S-SW 207 2 min 0,000 mm 2,5 UV-I 846 W/m 9,9 C 15,8 C 8,0 km/h (2 Bft) 96,00 %
03.04.2017 12:48 15,7 C 69 % 1020,8 hPa 0,0 l/m 4,7 km/h (1 Bft) S-SO 163 2 min 0,000 mm 2,1 UV-I 802 W/m 10,0 C 15,7 C 8,0 km/h (2 Bft) 95,74 %
03.04.2017 12:50 15,8 C 70 % 1020,8 hPa 0,0 l/m 4,6 km/h (1 Bft) O-SO 121 2 min 0,000 mm 1,8 UV-I 792 W/m 10,3 C 15,8 C 6,4 km/h (2 Bft) 97,62 %
03.04.2017 12:52 15,7 C 69 % 1020,7 hPa 0,0 l/m 4,1 km/h (1 Bft) S-SW 198 0 min 0,000 mm 1,7 UV-I 403 W/m 10,0 C 15,7 C 8,0 km/h (2 Bft) 97,14 %
03.04.2017 12:54 15,7 C 70 % 1020,8 hPa 0,0 l/m 4,8 km/h (1 Bft) SO 144 0 min 0,000 mm 1,7 UV-I 386 W/m 10,2 C 15,7 C 8,0 km/h (2 Bft) 98,46 %
03.04.2017 12:56 15,8 C 69 % 1020,8 hPa 0,0 l/m 5,9 km/h (2 Bft) S-SW 202 0 min 0,000 mm 1,7 UV-I 388 W/m 10,1 C 15,8 C 9,7 km/h (2 Bft) 100,00 %
03.04.2017 12:58 15,6 C 68 % 1020,8 hPa 0,0 l/m 4,3 km/h (1 Bft) S-SW 192 2 min 0,000 mm 1,8 UV-I 415 W/m 9,7 C 15,6 C 8,0 km/h (2 Bft) 94,00 %
03.04.2017 13:00 15,5 C 70 % 1020,8 hPa 0,0 l/m 0,7 km/h (0 Bft) S-SW 195 2 min 0,229 mm 1,9 UV-I 557 W/m 10,1 C 15,5 C 3,2 km/h (1 Bft) 98,00 %
03.04.2017 13:02 15,7 C 69 % 1020,8 hPa 0,0 l/m 3,7 km/h (1 Bft) W-SW 254 2 min 0,000 mm 1,9 UV-I 767 W/m 10,0 C 15,7 C 6,4 km/h (2 Bft) 97,56 %
03.04.2017 13:04 15,7 C 69 % 1020,8 hPa 0,0 l/m 6,1 km/h (2 Bft) SW 231 0 min 0,000 mm 1,6 UV-I 385 W/m 10,0 C 15,7 C 9,7 km/h (2 Bft) 100,00 %
03.04.2017 13:06 15,8 C 67 % 1020,8 hPa 0,0 l/m 7,5 km/h (2 Bft) W-SW 253 0 min 0,000 mm 1,5 UV-I 333 W/m 9,7 C 15,2 C 9,7 km/h (2 Bft) 100,00 %
03.04.2017 13:08 15,6 C 67 % 1020,7 hPa 0,0 l/m 5,4 km/h (1 Bft) S-SW 203 0 min 0,000 mm 1,4 UV-I 295 W/m 9,5 C 15,6 C 9,7 km/h (2 Bft) 100,00 %
03.04.2017 13:10 15,6 C 69 % 1020,7 hPa 0,0 l/m 4,1 km/h (1 Bft) W-SW 251 0 min 0,000 mm 1,4 UV-I 286 W/m 9,9 C 15,6 C 8,0 km/h (2 Bft) 94,74 %
03.04.2017 13:12 15,6 C 69 % 1020,7 hPa 0,0 l/m 4,0 km/h (1 Bft) W-NW 283 0 min 0,000 mm 1,3 UV-I 284 W/m 9,9 C 15,6 C 8,0 km/h (2 Bft) 100,00 %
03.04.2017 13:14 15,4 C 69 % 1020,7 hPa 0,0 l/m 3,9 km/h (1 Bft) W-SW 250 0 min 0,000 mm 1,3 UV-I 279 W/m 9,7 C 15,4 C 6,4 km/h (2 Bft) 97,73 %
03.04.2017 13:16 15,3 C 69 % 1020,7 hPa 0,0 l/m 3,7 km/h (1 Bft) S-SW 198 0 min 0,000 mm 1,4 UV-I 280 W/m 9,6 C 15,3 C 8,0 km/h (2 Bft) 98,11 %
03.04.2017 13:18 15,3 C 69 % 1020,7 hPa 0,0 l/m 2,8 km/h (1 Bft) S-SW 198 0 min 0,000 mm 1,4 UV-I 287 W/m 9,6 C 15,3 C 6,4 km/h (2 Bft) 97,73 %
03.04.2017 13:20 15,3 C 70 % 1020,7 hPa 0,0 l/m 5,2 km/h (1 Bft) W-SW 254 0 min 0,000 mm 1,4 UV-I 292 W/m 9,9 C 15,3 C 8,0 km/h (2 Bft) 100,00 %
03.04.2017 13:22 15,3 C 69 % 1020,7 hPa 0,0 l/m 4,9 km/h (1 Bft) W 273 0 min 0,000 mm 1,4 UV-I 297 W/m 9,6 C 15,3 C 8,0 km/h (2 Bft) 95,74 %
03.04.2017 13:24 15,6 C 70 % 1020,7 hPa 0,0 l/m 5,2 km/h (1 Bft) S-SW 211 0 min 0,000 mm 1,4 UV-I 312 W/m 10,1 C 15,6 C 9,7 km/h (2 Bft) 97,56 %
03.04.2017 13:26 15,7 C 69 % 1020,7 hPa 0,0 l/m 5,9 km/h (2 Bft) SW 233 0 min 0,000 mm 1,5 UV-I 327 W/m 10,0 C 15,7 C 8,0 km/h (2 Bft) 98,11 %
03.04.2017 13:28 15,7 C 68 % 1020,7 hPa 0,0 l/m 6,1 km/h (2 Bft) S-SW 197 0 min 0,000 mm 1,5 UV-I 324 W/m 9,8 C 15,7 C 8,0 km/h (2 Bft) 100,00 %
03.04.2017 13:30 15,7 C 68 % 1020,7 hPa 0,0 l/m 3,8 km/h (1 Bft) SW 219 0 min 0,000 mm 1,5 UV-I 319 W/m 9,8 C 15,7 C 6,4 km/h (2 Bft) 94,44 %
03.04.2017 13:32 15,6 C 68 % 1020,7 hPa 0,0 l/m 3,0 km/h (1 Bft) SW 219 0 min 0,000 mm 1,5 UV-I 318 W/m 9,7 C 15,6 C 4,8 km/h (1 Bft) 94,12 %
03.04.2017 13:34 15,6 C 69 % 1020,7 hPa 0,0 l/m 6,6 km/h (2 Bft) W-SW 237 0 min 0,000 mm 1,6 UV-I 338 W/m 9,9 C 15,5 C 9,7 km/h (2 Bft) 94,00 %
03.04.2017 13:36 15,6 C 69 % 1020,6 hPa 0,0 l/m 8,8 km/h (2 Bft) W-SW 253 0 min 0,000 mm 1,7 UV-I 370 W/m 9,9 C 14,3 C 12,9 km/h (3 Bft) 98,00 %
03.04.2017 13:38 15,6 C 69 % 1020,6 hPa 0,0 l/m 7,6 km/h (2 Bft) SW 215 0 min 0,000 mm 1,7 UV-I 392 W/m 9,9 C 14,9 C 12,9 km/h (3 Bft) 94,74 %
03.04.2017 13:40 15,6 C 70 % 1020,6 hPa 0,0 l/m 6,6 km/h (2 Bft) W 265 2 min 0,000 mm 1,7 UV-I 415 W/m 10,1 C 15,5 C 11,3 km/h (2 Bft) 95,12 %
03.04.2017 13:42 15,7 C 69 % 1020,6 hPa 0,0 l/m 7,6 km/h (2 Bft) W-SW 252 2 min 0,000 mm 1,7 UV-I 449 W/m 10,0 C 15,0 C 12,9 km/h (3 Bft) 98,11 %
03.04.2017 13:44 15,7 C 69 % 1020,6 hPa 0,0 l/m 8,0 km/h (2 Bft) SW 225 0 min 0,000 mm 1,6 UV-I 389 W/m 10,0 C 14,8 C 11,3 km/h (2 Bft) 96,43 %
03.04.2017 13:46 15,7 C 70 % 1020,6 hPa 0,0 l/m 6,2 km/h (2 Bft) W-NW 290 0 min 0,000 mm 1,5 UV-I 349 W/m 10,2 C 15,7 C 9,7 km/h (2 Bft) 93,62 %
03.04.2017 13:48 15,8 C 69 % 1020,6 hPa 0,0 l/m 10,1 km/h (2 Bft) W-SW 244 0 min 0,000 mm 1,4 UV-I 336 W/m 10,1 C 14,0 C 14,5 km/h (3 Bft) 97,87 %
03.04.2017 13:50 15,8 C 69 % 1020,6 hPa 0,0 l/m 6,6 km/h (2 Bft) SW 236 0 min 0,000 mm 1,4 UV-I 332 W/m 10,1 C 15,7 C 9,7 km/h (2 Bft) 92,11 %
03.04.2017 13:52 15,7 C 69 % 1020,6 hPa 0,0 l/m 4,9 km/h (1 Bft) SW 230 0 min 0,000 mm 1,4 UV-I 334 W/m 10,0 C 15,7 C 8,0 km/h (2 Bft) 94,34 %
03.04.2017 13:54 15,6 C 69 % 1020,6 hPa 0,0 l/m 5,4 km/h (1 Bft) W 264 0 min 0,000 mm 1,4 UV-I 332 W/m 9,9 C 15,6 C 9,7 km/h (2 Bft) 97,56 %
03.04.2017 13:56 15,6 C 69 % 1020,6 hPa 0,0 l/m 4,8 km/h (1 Bft) SW 227 0 min 0,000 mm 1,4 UV-I 337 W/m 9,9 C 15,6 C 8,0 km/h (2 Bft) 94,34 %
03.04.2017 13:58 15,7 C 70 % 1020,6 hPa 0,0 l/m 5,8 km/h (2 Bft) W-SW 242 0 min 0,000 mm 1,4 UV-I 339 W/m 10,2 C 15,7 C 8,0 km/h (2 Bft) 92,68 %
03.04.2017 14:00 15,7 C 69 % 1020,5 hPa 0,0 l/m 6,0 km/h (2 Bft) SW 232 0 min 0,203 mm 1,4 UV-I 334 W/m 10,0 C 15,7 C 12,9 km/h (3 Bft) 98,11 %
03.04.2017 14:02 15,7 C 69 % 1020,5 hPa 0,0 l/m 4,8 km/h (1 Bft) S-SW 200 0 min 0,000 mm 1,4 UV-I 332 W/m 10,0 C 15,7 C 6,4 km/h (2 Bft) 97,37 %
03.04.2017 14:04 15,6 C 70 % 1020,5 hPa 0,0 l/m 6,3 km/h (2 Bft) S-SW 209 0 min 0,000 mm 1,3 UV-I 327 W/m 10,1 C 15,6 C 9,7 km/h (2 Bft) 87,50 %
03.04.2017 14:06 15,7 C 70 % 1020,4 hPa 0,0 l/m 5,9 km/h (2 Bft) W-SW 251 0 min 0,000 mm 1,3 UV-I 318 W/m 10,2 C 15,7 C 9,7 km/h (2 Bft) 93,18 %
03.04.2017 14:08 15,8 C 70 % 1020,4 hPa 0,0 l/m 5,6 km/h (1 Bft) S-SW 205 0 min 0,000 mm 1,3 UV-I 314 W/m 10,3 C 15,8 C 9,7 km/h (2 Bft) 97,44 %
03.04.2017 14:10 15,9 C 69 % 1020,4 hPa 0,0 l/m 8,0 km/h (2 Bft) W-SW 252 0 min 0,000 mm 1,3 UV-I 310 W/m 10,2 C 15,0 C 12,9 km/h (3 Bft) 91,38 %
03.04.2017 14:12 15,8 C 69 % 1020,4 hPa 0,0 l/m 5,6 km/h (1 Bft) W 273 0 min 0,000 mm 1,3 UV-I 315 W/m 10,1 C 15,8 C 14,5 km/h (3 Bft) 94,87 %
03.04.2017 14:14 15,7 C 69 % 1020,4 hPa 0,0 l/m 5,7 km/h (1 Bft) W-SW 238 0 min 0,000 mm 1,3 UV-I 320 W/m 10,0 C 15,7 C 14,5 km/h (3 Bft) 94,64 %
03.04.2017 14:16 15,6 C 69 % 1020,4 hPa 0,0 l/m 5,6 km/h (1 Bft) W 275 0 min 0,000 mm 1,3 UV-I 347 W/m 9,9 C 15,6 C 11,3 km/h (2 Bft) 92,11 %
03.04.2017 14:18 15,6 C 69 % 1020,4 hPa 0,0 l/m 5,2 km/h (1 Bft) W 273 0 min 0,000 mm 1,3 UV-I 332 W/m 9,9 C 15,6 C 9,7 km/h (2 Bft) 96,23 %
03.04.2017 14:20 15,6 C 69 % 1020,4 hPa 0,0 l/m 4,4 km/h (1 Bft) W-SW 242 0 min 0,000 mm 1,2 UV-I 297 W/m 9,9 C 15,6 C 8,0 km/h (2 Bft) 94,00 %
03.04.2017 14:22 15,6 C 69 % 1020,3 hPa 0,0 l/m 2,9 km/h (1 Bft) W 274 0 min 0,000 mm 1,2 UV-I 293 W/m 9,9 C 15,6 C 6,4 km/h (2 Bft) 97,56 %
03.04.2017 14:24 15,7 C 70 % 1020,3 hPa 0,0 l/m 4,8 km/h (1 Bft) W-SW 244 0 min 0,000 mm 1,2 UV-I 304 W/m 10,2 C 15,7 C 6,4 km/h (2 Bft) 94,00 %
03.04.2017 14:26 15,8 C 70 % 1020,3 hPa 0,0 l/m 5,9 km/h (2 Bft) S-SW 207 0 min 0,000 mm 1,3 UV-I 319 W/m 10,3 C 15,8 C 11,3 km/h (2 Bft) 95,12 %
03.04.2017 14:28 15,9 C 69 % 1020,2 hPa 0,0 l/m 7,1 km/h (2 Bft) W-SW 252 0 min 0,000 mm 1,3 UV-I 328 W/m 10,2 C 15,5 C 9,7 km/h (2 Bft) 94,00 %
03.04.2017 14:30 15,8 C 69 % 1020,2 hPa 0,0 l/m 7,6 km/h (2 Bft) SW 224 0 min 0,000 mm 1,3 UV-I 343 W/m 10,1 C 15,1 C 12,9 km/h (3 Bft) 90,00 %
03.04.2017 14:32 15,8 C 69 % 1020,2 hPa 0,0 l/m 4,3 km/h (1 Bft) W-NW 288 0 min 0,000 mm 1,3 UV-I 350 W/m 10,1 C 15,8 C 11,3 km/h (2 Bft) 92,11 %
03.04.2017 14:34 15,8 C 69 % 1020,2 hPa 0,0 l/m 3,3 km/h (1 Bft) NW 306 0 min 0,000 mm 1,4 UV-I 358 W/m 10,1 C 15,8 C 8,0 km/h (2 Bft) 92,00 %
03.04.2017 14:36 15,8 C 69 % 1020,2 hPa 0,0 l/m 3,2 km/h (1 Bft) S-SW 201 0 min 0,000 mm 1,4 UV-I 368 W/m 10,1 C 15,8 C 6,4 km/h (2 Bft) 95,74 %
03.04.2017 14:38 15,8 C 68 % 1020,1 hPa 0,0 l/m 4,3 km/h (1 Bft) S-SW 202 0 min 0,000 mm 1,4 UV-I 364 W/m 9,9 C 15,8 C 8,0 km/h (2 Bft) 90,24 %
03.04.2017 14:40 15,9 C 69 % 1020,1 hPa 0,0 l/m 5,9 km/h (2 Bft) SW 215 0 min 0,000 mm 1,4 UV-I 373 W/m 10,2 C 15,9 C 9,7 km/h (2 Bft) 96,23 %
03.04.2017 14:42 15,8 C 69 % 1020,1 hPa 0,0 l/m 6,0 km/h (2 Bft) W-SW 244 2 min 0,000 mm 1,4 UV-I 385 W/m 10,1 C 15,8 C 12,9 km/h (3 Bft) 94,00 %
03.04.2017 14:44 15,8 C 68 % 1020,1 hPa 0,0 l/m 8,2 km/h (2 Bft) W-SW 249 2 min 0,000 mm 1,5 UV-I 407 W/m 9,9 C 14,8 C 12,9 km/h (3 Bft) 100,00 %
03.04.2017 14:46 15,8 C 69 % 1020,0 hPa 0,0 l/m 3,8 km/h (1 Bft) W-SW 253 2 min 0,000 mm 1,6 UV-I 439 W/m 10,1 C 15,8 C 6,4 km/h (2 Bft) 98,08 %
03.04.2017 14:48 15,8 C 68 % 1020,0 hPa 0,0 l/m 1,8 km/h (1 Bft) W-SW 252 2 min 0,000 mm 1,6 UV-I 461 W/m 9,9 C 15,8 C 4,8 km/h (1 Bft) 96,00 %
03.04.2017 14:50 15,9 C 68 % 1020,0 hPa 0,0 l/m 5,8 km/h (2 Bft) W-NW 286 2 min 0,000 mm 1,6 UV-I 447 W/m 10,0 C 15,9 C 9,7 km/h (2 Bft) 97,22 %
03.04.2017 14:52 16,1 C 70 % 1020,0 hPa 0,0 l/m 1,2 km/h (1 Bft) W-NW 286 2 min 0,000 mm 1,5 UV-I 417 W/m 10,6 C 16,1 C 3,2 km/h (1 Bft) 98,11 %
03.04.2017 14:54 16,3 C 69 % 1020,0 hPa 0,0 l/m 4,2 km/h (1 Bft) W 270 2 min 0,000 mm 1,4 UV-I 384 W/m 10,6 C 16,3 C 8,0 km/h (2 Bft) 100,00 %
03.04.2017 14:56 16,4 C 68 % 1020,0 hPa 0,0 l/m 3,7 km/h (1 Bft) W-NW 284 0 min 0,000 mm 1,3 UV-I 362 W/m 10,5 C 16,4 C 6,4 km/h (2 Bft) 98,00 %
03.04.2017 14:58 16,3 C 69 % 1020,0 hPa 0,0 l/m 3,4 km/h (1 Bft) W-NW 289 0 min 0,000 mm 1,3 UV-I 346 W/m 10,6 C 16,3 C 6,4 km/h (2 Bft) 100,00 %
03.04.2017 15:00 16,2 C 69 % 1019,9 hPa 0,0 l/m 2,3 km/h (1 Bft) W-NW 298 0 min 0,203 mm 1,3 UV-I 333 W/m 10,5 C 16,2 C 6,4 km/h (2 Bft) 100,00 %
03.04.2017 15:02 16,2 C 69 % 1019,9 hPa 0,0 l/m 2,4 km/h (1 Bft) NW 313 0 min 0,000 mm 1,3 UV-I 325 W/m 10,5 C 16,2 C 6,4 km/h (2 Bft) 97,87 %
03.04.2017 15:04 16,1 C 68 % 1020,0 hPa 0,0 l/m 2,2 km/h (1 Bft) NW 319 0 min 0,000 mm 1,3 UV-I 323 W/m 10,2 C 16,1 C 3,2 km/h (1 Bft) 97,56 %
03.04.2017 15:06 16,1 C 72 % 1020,0 hPa 0,0 l/m 1,8 km/h (1 Bft) W-NW 295 0 min 0,000 mm 1,3 UV-I 322 W/m 11,0 C 16,1 C 3,2 km/h (1 Bft) 100,00 %
03.04.2017 15:08 16,1 C 70 % 1020,0 hPa 0,0 l/m 3,1 km/h (1 Bft) W-NW 302 0 min 0,000 mm 1,3 UV-I 329 W/m 10,6 C 16,1 C 6,4 km/h (2 Bft) 97,37 %
03.04.2017 15:10 16,1 C 70 % 1019,9 hPa 0,0 l/m 2,7 km/h (1 Bft) NW 318 0 min 0,000 mm 1,4 UV-I 348 W/m 10,6 C 16,1 C 4,8 km/h (1 Bft) 97,87 %
03.04.2017 15:12 16,1 C 68 % 1019,9 hPa 0,0 l/m 3,6 km/h (1 Bft) W-NW 296 2 min 0,000 mm 1,4 UV-I 384 W/m 10,2 C 16,1 C 6,4 km/h (2 Bft) 100,00 %
03.04.2017 15:14 16,1 C 69 % 1019,9 hPa 0,0 l/m 2,3 km/h (1 Bft) W-NW 298 2 min 0,000 mm 1,5 UV-I 411 W/m 10,4 C 16,1 C 4,8 km/h (1 Bft) 98,39 %
03.04.2017 15:16 16,2 C 70 % 1019,8 hPa 0,0 l/m 2,6 km/h (1 Bft) W-NW 296 2 min 0,000 mm 1,5 UV-I 382 W/m 10,7 C 16,2 C 4,8 km/h (1 Bft) 98,00 %
03.04.2017 15:18 16,2 C 69 % 1019,8 hPa 0,0 l/m 2,5 km/h (1 Bft) W-NW 296 2 min 0,000 mm 1,5 UV-I 421 W/m 10,5 C 16,2 C 4,8 km/h (1 Bft) 97,56 %
03.04.2017 15:20 16,2 C 70 % 1019,8 hPa 0,0 l/m 3,2 km/h (1 Bft) NW 313 2 min 0,000 mm 1,6 UV-I 422 W/m 10,7 C 16,2 C 6,4 km/h (2 Bft) 98,00 %
03.04.2017 15:22 16,2 C 70 % 1019,7 hPa 0,0 l/m 2,5 km/h (1 Bft) W-NW 291 2 min 0,000 mm 1,6 UV-I 408 W/m 10,7 C 16,2 C 8,0 km/h (2 Bft) 100,00 %
03.04.2017 15:24 16,2 C 69 % 1019,8 hPa 0,0 l/m 2,7 km/h (1 Bft) NW 315 2 min 0,000 mm 1,5 UV-I 402 W/m 10,5 C 16,2 C 6,4 km/h (2 Bft) 98,11 %
03.04.2017 15:26 16,3 C 69 % 1019,7 hPa 0,0 l/m 1,2 km/h (1 Bft) NW 315 2 min 0,000 mm 1,5 UV-I 404 W/m 10,6 C 16,3 C 3,2 km/h (1 Bft) 100,00 %
03.04.2017 15:28 16,3 C 69 % 1019,8 hPa 0,0 l/m 1,2 km/h (1 Bft) NW 313 2 min 0,000 mm 1,4 UV-I 377 W/m 10,6 C 16,3 C 6,4 km/h (2 Bft) 97,73 %
03.04.2017 15:30 16,3 C 67 % 1019,8 hPa 0,0 l/m 3,9 km/h (1 Bft) W 260 2 min 0,000 mm 1,4 UV-I 344 W/m 10,2 C 16,3 C 6,4 km/h (2 Bft) 98,11 %
03.04.2017 15:32 16,1 C 67 % 1019,7 hPa 0,0 l/m 4,8 km/h (1 Bft) W-SW 254 0 min 0,000 mm 1,3 UV-I 331 W/m 10,0 C 16,1 C 8,0 km/h (2 Bft) 97,37 %
03.04.2017 15:34 16,2 C 68 % 1019,7 hPa 0,0 l/m 1,8 km/h (1 Bft) W-NW 290 0 min 0,000 mm 1,3 UV-I 325 W/m 10,3 C 16,2 C 4,8 km/h (1 Bft) 98,11 %
03.04.2017 15:36 16,2 C 67 % 1019,6 hPa 0,0 l/m 4,3 km/h (1 Bft) NW 326 2 min 0,000 mm 1,3 UV-I 338 W/m 10,1 C 16,2 C 11,3 km/h (2 Bft) 100,00 %
03.04.2017 15:38 16,1 C 67 % 1019,6 hPa 0,0 l/m 1,5 km/h (1 Bft) NW 315 2 min 0,000 mm 1,3 UV-I 341 W/m 10,0 C 16,1 C 6,4 km/h (2 Bft) 98,00 %
03.04.2017 15:40 16,1 C 67 % 1019,6 hPa 0,0 l/m 4,9 km/h (1 Bft) W 264 2 min 0,000 mm 1,3 UV-I 333 W/m 10,0 C 16,1 C 6,4 km/h (2 Bft) 100,00 %
03.04.2017 15:42 16,1 C 67 % 1019,6 hPa 0,0 l/m 4,5 km/h (1 Bft) W 281 0 min 0,000 mm 1,3 UV-I 312 W/m 10,0 C 16,1 C 6,4 km/h (2 Bft) 98,00 %
03.04.2017 15:44 16,1 C 68 % 1019,6 hPa 0,0 l/m 4,1 km/h (1 Bft) N-NW 327 0 min 0,000 mm 1,3 UV-I 306 W/m 10,2 C 16,1 C 8,0 km/h (2 Bft) 98,11 %
03.04.2017 15:46 16,1 C 69 % 1019,6 hPa 0,0 l/m 3,7 km/h (1 Bft) NW 313 0 min 0,000 mm 1,3 UV-I 304 W/m 10,4 C 16,1 C 8,0 km/h (2 Bft) 97,14 %
03.04.2017 15:48 16,1 C 69 % 1019,6 hPa 0,0 l/m 3,4 km/h (1 Bft) NW 306 0 min 0,000 mm 1,2 UV-I 259 W/m 10,4 C 16,1 C 4,8 km/h (1 Bft) 100,00 %
03.04.2017 15:50 16,1 C 67 % 1019,6 hPa 0,0 l/m 1,5 km/h (1 Bft) NW 306 0 min 0,000 mm 1,2 UV-I 236 W/m 10,0 C 16,1 C 3,2 km/h (1 Bft) 98,00 %
03.04.2017 15:52 16,0 C 68 % 1019,6 hPa 0,0 l/m 2,4 km/h (1 Bft) W-NW 299 0 min 0,000 mm 1,2 UV-I 232 W/m 10,1 C 16,0 C 8,0 km/h (2 Bft) 98,00 %
03.04.2017 15:54 15,9 C 67 % 1019,5 hPa 0,0 l/m 2,9 km/h (1 Bft) NW 311 0 min 0,000 mm 1,1 UV-I 239 W/m 9,8 C 15,9 C 4,8 km/h (1 Bft) 97,87 %
03.04.2017 15:56 15,9 C 68 % 1019,5 hPa 0,0 l/m 5,1 km/h (1 Bft) W-SW 257 0 min 0,000 mm 1,1 UV-I 251 W/m 10,0 C 15,9 C 9,7 km/h (2 Bft) 100,00 %
03.04.2017 15:58 15,9 C 67 % 1019,5 hPa 0,0 l/m 4,5 km/h (1 Bft) W 265 0 min 0,000 mm 1,1 UV-I 284 W/m 9,8 C 15,9 C 6,4 km/h (2 Bft) 96,88 %
03.04.2017 16:00 16,1 C 68 % 1019,5 hPa 0,0 l/m 0,3 km/h (0 Bft) W 265 0 min 0,178 mm 1,1 UV-I 268 W/m 10,2 C 16,1 C 1,6 km/h (1 Bft) 98,11 %
03.04.2017 16:02 16,1 C 69 % 1019,5 hPa 0,0 l/m 1,5 km/h (1 Bft) NW 325 0 min 0,000 mm 1,1 UV-I 242 W/m 10,4 C 16,1 C 3,2 km/h (1 Bft) 100,00 %
03.04.2017 16:04 16,1 C 68 % 1019,5 hPa 0,0 l/m 4,2 km/h (1 Bft) W 266 0 min 0,000 mm 1,1 UV-I 249 W/m 10,2 C 16,1 C 9,7 km/h (2 Bft) 98,00 %
03.04.2017 16:06 16,0 C 67 % 1019,4 hPa 0,0 l/m 3,2 km/h (1 Bft) N-NW 332 0 min 0,000 mm 1,0 UV-I 234 W/m 9,9 C 16,0 C 6,4 km/h (2 Bft) 100,00 %
03.04.2017 16:08 15,9 C 69 % 1019,4 hPa 0,0 l/m 5,0 km/h (1 Bft) NW 315 0 min 0,000 mm 1,0 UV-I 220 W/m 10,2 C 15,9 C 9,7 km/h (2 Bft) 97,44 %
03.04.2017 16:10 15,8 C 68 % 1019,4 hPa 0,0 l/m 6,3 km/h (2 Bft) NW 315 0 min 0,000 mm 1,0 UV-I 211 W/m 9,9 C 15,8 C 12,9 km/h (3 Bft) 96,43 %
03.04.2017 16:12 15,8 C 70 % 1019,4 hPa 0,0 l/m 1,0 km/h (0 Bft) NW 317 0 min 0,000 mm 1,0 UV-I 206 W/m 10,3 C 15,8 C 3,2 km/h (1 Bft) 95,74 %
03.04.2017 16:14 15,8 C 69 % 1019,3 hPa 0,0 l/m 2,4 km/h (1 Bft) NW 312 0 min 0,000 mm 1,0 UV-I 242 W/m 10,1 C 15,8 C 4,8 km/h (1 Bft) 97,37 %
03.04.2017 16:16 15,8 C 69 % 1019,3 hPa 0,0 l/m 2,1 km/h (1 Bft) NW 319 2 min 0,000 mm 1,1 UV-I 311 W/m 10,1 C 15,8 C 4,8 km/h (1 Bft) 96,23 %
03.04.2017 16:18 16,1 C 70 % 1019,3 hPa 0,0 l/m 2,1 km/h (1 Bft) N 9 2 min 0,000 mm 1,1 UV-I 398 W/m 10,6 C 16,1 C 4,8 km/h (1 Bft) 96,00 %
03.04.2017 16:20 16,2 C 70 % 1019,3 hPa 0,0 l/m 3,7 km/h (1 Bft) NW 323 2 min 0,000 mm 1,1 UV-I 438 W/m 10,7 C 16,2 C 8,0 km/h (2 Bft) 97,37 %
03.04.2017 16:22 16,3 C 68 % 1019,3 hPa 0,0 l/m 3,7 km/h (1 Bft) N-NO 17 2 min 0,000 mm 1,1 UV-I 430 W/m 10,4 C 16,3 C 11,3 km/h (2 Bft) 95,45 %
03.04.2017 16:24 16,4 C 67 % 1019,3 hPa 0,0 l/m 2,2 km/h (1 Bft) N-NW 338 2 min 0,000 mm 1,1 UV-I 418 W/m 10,3 C 16,4 C 8,0 km/h (2 Bft) 94,64 %
03.04.2017 16:26 16,4 C 68 % 1019,2 hPa 0,0 l/m 4,6 km/h (1 Bft) N 9 2 min 0,000 mm 1,0 UV-I 401 W/m 10,5 C 16,4 C 14,5 km/h (3 Bft) 96,00 %
03.04.2017 16:28 16,5 C 68 % 1019,2 hPa 0,0 l/m 3,2 km/h (1 Bft) W-NW 296 2 min 0,000 mm 1,0 UV-I 400 W/m 10,6 C 16,5 C 11,3 km/h (2 Bft) 97,37 %
03.04.2017 16:30 16,5 C 66 % 1019,2 hPa 0,0 l/m 4,1 km/h (1 Bft) W-NW 284 2 min 0,000 mm 1,0 UV-I 402 W/m 10,1 C 16,5 C 8,0 km/h (2 Bft) 94,34 %
03.04.2017 16:32 16,6 C 67 % 1019,2 hPa 0,0 l/m 3,4 km/h (1 Bft) NW 312 2 min 0,000 mm 1,0 UV-I 402 W/m 10,4 C 16,6 C 8,0 km/h (2 Bft) 95,45 %
03.04.2017 16:34 16,6 C 66 % 1019,2 hPa 0,0 l/m 5,3 km/h (1 Bft) N-NO 28 2 min 0,000 mm 1,0 UV-I 398 W/m 10,2 C 16,6 C 9,7 km/h (2 Bft) 94,34 %
03.04.2017 16:36 16,5 C 68 % 1019,1 hPa 0,0 l/m 4,2 km/h (1 Bft) N 5 2 min 0,000 mm 1,0 UV-I 392 W/m 10,6 C 16,5 C 6,4 km/h (2 Bft) 97,56 %
03.04.2017 16:38 16,4 C 68 % 1019,1 hPa 0,0 l/m 3,3 km/h (1 Bft) NW 314 2 min 0,000 mm 0,9 UV-I 386 W/m 10,5 C 16,4 C 8,0 km/h (2 Bft) 95,74 %
03.04.2017 16:40 16,4 C 68 % 1019,1 hPa 0,0 l/m 3,7 km/h (1 Bft) NW 315 2 min 0,000 mm 0,9 UV-I 379 W/m 10,5 C 16,4 C 8,0 km/h (2 Bft) 97,87 %
03.04.2017 16:42 16,4 C 67 % 1019,1 hPa 0,0 l/m 3,6 km/h (1 Bft) NW 315 2 min 0,000 mm 0,9 UV-I 360 W/m 10,3 C 16,4 C 8,0 km/h (2 Bft) 97,87 %
03.04.2017 16:44 16,4 C 66 % 1019,1 hPa 0,0 l/m 4,0 km/h (1 Bft) W-NW 291 2 min 0,000 mm 0,9 UV-I 340 W/m 10,0 C 16,4 C 6,4 km/h (2 Bft) 97,78 %
03.04.2017 16:46 16,4 C 65 % 1019,1 hPa 0,0 l/m 4,2 km/h (1 Bft) W-NW 291 2 min 0,000 mm 0,8 UV-I 336 W/m 9,8 C 16,4 C 11,3 km/h (2 Bft) 97,87 %
03.04.2017 16:48 16,5 C 67 % 1019,1 hPa 0,0 l/m 1,5 km/h (1 Bft) N-NW 343 2 min 0,000 mm 0,8 UV-I 337 W/m 10,4 C 16,5 C 8,0 km/h (2 Bft) 97,56 %
03.04.2017 16:50 16,4 C 64 % 1019,1 hPa 0,0 l/m 2,8 km/h (1 Bft) NW 313 2 min 0,000 mm 0,8 UV-I 257 W/m 9,6 C 16,4 C 6,4 km/h (2 Bft) 100,00 %
03.04.2017 16:52 16,3 C 65 % 1019,1 hPa 0,0 l/m 1,6 km/h (1 Bft) N-NW 336 2 min 0,000 mm 0,8 UV-I 297 W/m 9,7 C 16,3 C 4,8 km/h (1 Bft) 97,56 %
03.04.2017 16:55 16,3 C 65 % 1019,1 hPa 0,0 l/m 3,2 km/h (1 Bft) NW 315 3 min 0,000 mm 0,8 UV-I 316 W/m 9,7 C 16,3 C 9,7 km/h (2 Bft) 96,49 %
03.04.2017 16:58 16,3 C 65 % 1019,0 hPa 0,0 l/m 3,3 km/h (1 Bft) N-NW 335 3 min 0,000 mm 0,7 UV-I 325 W/m 9,7 C 16,3 C 6,4 km/h (2 Bft) 95,89 %
03.04.2017 17:00 16,3 C 65 % 1019,1 hPa 0,0 l/m 2,1 km/h (1 Bft) N-NO 32 2 min 0,000 mm 0,7 UV-I 321 W/m 9,7 C 16,3 C 4,8 km/h (1 Bft) 100,00 %
03.04.2017 17:02 16,3 C 64 % 1019,0 hPa 0,0 l/m 2,1 km/h (1 Bft) N 349 2 min 0,203 mm 0,7 UV-I 310 W/m 9,5 C 16,3 C 4,8 km/h (1 Bft) 98,11 %
03.04.2017 17:04 16,4 C 65 % 1018,9 hPa 0,0 l/m 2,1 km/h (1 Bft) N-NW 342 2 min 0,000 mm 0,7 UV-I 309 W/m 9,8 C 16,4 C 4,8 km/h (1 Bft) 100,00 %
03.04.2017 17:06 16,4 C 63 % 1018,9 hPa 0,0 l/m 3,2 km/h (1 Bft) W-NW 294 2 min 0,000 mm 0,7 UV-I 301 W/m 9,3 C 16,4 C 6,4 km/h (2 Bft) 95,45 %
03.04.2017 17:08 16,4 C 63 % 1018,9 hPa 0,0 l/m 1,5 km/h (1 Bft) W-NW 296 2 min 0,000 mm 0,6 UV-I 282 W/m 9,3 C 16,4 C 4,8 km/h (1 Bft) 97,96 %
03.04.2017 17:10 16,4 C 65 % 1018,9 hPa 0,0 l/m 0,5 km/h (0 Bft) W-NW 296 2 min 0,000 mm 0,6 UV-I 282 W/m 9,8 C 16,4 C 1,6 km/h (1 Bft) 100,00 %
03.04.2017 17:12 16,6 C 64 % 1018,9 hPa 0,0 l/m 2,1 km/h (1 Bft) NW 321 2 min 0,000 mm 0,6 UV-I 279 W/m 9,8 C 16,6 C 4,8 km/h (1 Bft) 100,00 %
03.04.2017 17:14 16,5 C 63 % 1018,9 hPa 0,0 l/m 1,2 km/h (1 Bft) NW 325 2 min 0,000 mm 0,6 UV-I 266 W/m 9,4 C 16,5 C 3,2 km/h (1 Bft) 98,21 %
03.04.2017 17:16 16,4 C 64 % 1018,9 hPa 0,0 l/m 1,1 km/h (1 Bft) NW 325 2 min 0,000 mm 0,6 UV-I 269 W/m 9,6 C 16,4 C 3,2 km/h (1 Bft) 97,87 %
03.04.2017 17:18 16,4 C 66 % 1018,9 hPa 0,0 l/m 4,7 km/h (1 Bft) N-NW 346 2 min 0,000 mm 0,6 UV-I 269 W/m 10,0 C 16,4 C 9,7 km/h (2 Bft) 97,73 %
03.04.2017 17:20 16,4 C 66 % 1018,9 hPa 0,0 l/m 2,8 km/h (1 Bft) NW 313 2 min 0,000 mm 0,6 UV-I 267 W/m 10,0 C 16,4 C 4,8 km/h (1 Bft) 97,37 %
03.04.2017 17:22 16,3 C 66 % 1018,9 hPa 0,0 l/m 2,3 km/h (1 Bft) N-NW 333 2 min 0,000 mm 0,5 UV-I 262 W/m 9,9 C 16,3 C 3,2 km/h (1 Bft) 98,31 %
03.04.2017 17:24 16,3 C 66 % 1019,0 hPa 0,0 l/m 3,2 km/h (1 Bft) N 11 2 min 0,000 mm 0,5 UV-I 255 W/m 9,9 C 16,3 C 8,0 km/h (2 Bft) 97,56 %
03.04.2017 17:26 16,3 C 67 % 1018,9 hPa 0,0 l/m 2,1 km/h (1 Bft) NW 325 2 min 0,000 mm 0,5 UV-I 249 W/m 10,2 C 16,3 C 6,4 km/h (2 Bft) 92,31 %
03.04.2017 17:28 16,3 C 68 % 1019,0 hPa 0,0 l/m 1,6 km/h (1 Bft) N 11 2 min 0,000 mm 0,5 UV-I 244 W/m 10,4 C 16,3 C 4,8 km/h (1 Bft) 100,00 %
03.04.2017 17:30 16,3 C 67 % 1019,0 hPa 0,0 l/m 1,0 km/h (0 Bft) N 355 2 min 0,000 mm 0,5 UV-I 236 W/m 10,2 C 16,3 C 3,2 km/h (1 Bft) 100,00 %
03.04.2017 17:32 16,3 C 68 % 1019,0 hPa 0,0 l/m 0,7 km/h (0 Bft) N 5 2 min 0,000 mm 0,3 UV-I 228 W/m 10,4 C 16,3 C 1,6 km/h (1 Bft) 97,62 %
03.04.2017 17:34 16,2 C 67 % 1019,0 hPa 0,0 l/m 3,5 km/h (1 Bft) N-NO 24 2 min 0,000 mm 0,0 UV-I 220 W/m 10,1 C 16,2 C 9,7 km/h (2 Bft) 97,73 %
03.04.2017 17:36 16,1 C 66 % 1019,0 hPa 0,0 l/m 7,1 km/h (2 Bft) N 5 2 min 0,000 mm 0,0 UV-I 186 W/m 9,7 C 15,7 C 11,3 km/h (2 Bft) 98,00 %
03.04.2017 17:38 15,9 C 67 % 1019,0 hPa 0,0 l/m 9,0 km/h (2 Bft) N 11 2 min 0,000 mm 0,0 UV-I 181 W/m 9,8 C 14,6 C 14,5 km/h (3 Bft) 97,56 %
03.04.2017 17:40 15,8 C 67 % 1019,0 hPa 0,0 l/m 4,8 km/h (1 Bft) N-NO 33 0 min 0,000 mm 0,0 UV-I 157 W/m 9,7 C 15,8 C 14,5 km/h (3 Bft) 97,87 %
03.04.2017 17:42 15,7 C 67 % 1019,0 hPa 0,0 l/m 3,8 km/h (1 Bft) N-NO 22 0 min 0,000 mm 0,0 UV-I 136 W/m 9,6 C 15,7 C 11,3 km/h (2 Bft) 96,23 %
03.04.2017 17:44 15,6 C 67 % 1019,0 hPa 0,0 l/m 3,7 km/h (1 Bft) NO 36 2 min 0,000 mm 0,0 UV-I 193 W/m 9,5 C 15,6 C 8,0 km/h (2 Bft) 97,73 %
03.04.2017 17:46 15,6 C 68 % 1019,0 hPa 0,0 l/m 1,8 km/h (1 Bft) NW 307 2 min 0,000 mm 0,0 UV-I 193 W/m 9,7 C 15,6 C 4,8 km/h (1 Bft) 98,00 %
03.04.2017 17:48 15,7 C 68 % 1019,0 hPa 0,0 l/m 5,3 km/h (1 Bft) N 9 2 min 0,000 mm 0,0 UV-I 181 W/m 9,8 C 15,7 C 16,1 km/h (3 Bft) 97,87 %
03.04.2017 17:50 15,7 C 68 % 1019,0 hPa 0,0 l/m 6,4 km/h (2 Bft) N-NO 24 2 min 0,000 mm 0,0 UV-I 164 W/m 9,8 C 15,7 C 11,3 km/h (2 Bft) 100,00 %
03.04.2017 17:52 15,7 C 68 % 1019,0 hPa 0,0 l/m 7,6 km/h (2 Bft) N-NO 19 0 min 0,000 mm 0,0 UV-I 153 W/m 9,8 C 15,0 C 11,3 km/h (2 Bft) 94,00 %
03.04.2017 17:54 15,6 C 68 % 1019,1 hPa 0,0 l/m 4,2 km/h (1 Bft) N-NO 20 0 min 0,000 mm 0,0 UV-I 137 W/m 9,7 C 15,6 C 8,0 km/h (2 Bft) 95,12 %
03.04.2017 17:56 15,5 C 67 % 1019,1 hPa 0,0 l/m 1,9 km/h (1 Bft) N-NO 12 0 min 0,000 mm 0,0 UV-I 120 W/m 9,4 C 15,5 C 3,2 km/h (1 Bft) 100,00 %
03.04.2017 17:58 15,4 C 69 % 1019,1 hPa 0,0 l/m 1,4 km/h (1 Bft) N-NO 17 0 min 0,000 mm 0,0 UV-I 117 W/m 9,7 C 15,4 C 4,8 km/h (1 Bft) 97,87 %
03.04.2017 18:00 15,3 C 70 % 1019,1 hPa 0,0 l/m 0,7 km/h (0 Bft) N-NO 17 0 min 0,127 mm 0,0 UV-I 114 W/m 9,9 C 15,3 C 3,2 km/h (1 Bft) 96,00 %
03.04.2017 18:03 15,2 C 69 % 1019,1 hPa 0,0 l/m 0,8 km/h (0 Bft) N-NO 14 0 min 0,000 mm 0,0 UV-I 113 W/m 9,6 C 15,2 C 3,2 km/h (1 Bft) 93,85 %
03.04.2017 18:04 15,2 C 71 % 1019,1 hPa 0,0 l/m 1,8 km/h (1 Bft) N-NO 13 0 min 0,000 mm 0,0 UV-I 115 W/m 10,0 C 15,2 C 3,2 km/h (1 Bft) 95,65 %
03.04.2017 18:06 15,2 C 70 % 1019,1 hPa 0,0 l/m 1,3 km/h (1 Bft) N 9 0 min 0,000 mm 0,0 UV-I 111 W/m 9,8 C 15,2 C 3,2 km/h (1 Bft) 95,56 %
03.04.2017 18:08 15,2 C 69 % 1019,1 hPa 0,0 l/m 1,5 km/h (1 Bft) N-NO 13 0 min 0,000 mm 0,0 UV-I 101 W/m 9,6 C 15,2 C 3,2 km/h (1 Bft) 95,74 %
03.04.2017 18:10 15,2 C 71 % 1019,1 hPa 0,0 l/m 1,4 km/h (1 Bft) N-NO 13 0 min 0,000 mm 0,0 UV-I 93 W/m 10,0 C 15,2 C 3,2 km/h (1 Bft) 94,64 %
03.04.2017 18:12 15,2 C 69 % 1019,0 hPa 0,0 l/m 1,4 km/h (1 Bft) N-NW 340 0 min 0,000 mm 0,0 UV-I 89 W/m 9,6 C 15,2 C 3,2 km/h (1 Bft) 95,74 %
03.04.2017 18:14 15,3 C 69 % 1019,0 hPa 0,0 l/m 0,2 km/h (0 Bft) N-NW 340 0 min 0,000 mm 0,0 UV-I 87 W/m 9,6 C 15,3 C 1,6 km/h (1 Bft) 97,37 %
03.04.2017 18:16 15,3 C 69 % 1019,0 hPa 0,0 l/m 1,1 km/h (1 Bft) N-NW 339 0 min 0,000 mm 0,0 UV-I 85 W/m 9,6 C 15,3 C 3,2 km/h (1 Bft) 94,00 %
03.04.2017 18:18 15,3 C 68 % 1019,0 hPa 0,0 l/m 3,0 km/h (1 Bft) N-NO 21 0 min 0,000 mm 0,0 UV-I 81 W/m 9,4 C 15,3 C 6,4 km/h (2 Bft) 93,18 %
03.04.2017 18:20 15,4 C 68 % 1019,0 hPa 0,0 l/m 0,2 km/h (0 Bft) N-NO 21 0 min 0,000 mm 0,0 UV-I 76 W/m 9,5 C 15,4 C 1,6 km/h (1 Bft) 98,11 %
03.04.2017 18:22 15,3 C 69 % 1018,9 hPa 0,0 l/m 0,5 km/h (0 Bft) N-NO 21 0 min 0,000 mm 0,0 UV-I 73 W/m 9,6 C 15,3 C 1,6 km/h (1 Bft) 92,68 %
03.04.2017 18:24 15,3 C 69 % 1018,9 hPa 0,0 l/m 0,9 km/h (0 Bft) N-NO 17 0 min 0,000 mm 0,0 UV-I 70 W/m 9,6 C 15,3 C 3,2 km/h (1 Bft) 92,00 %
03.04.2017 18:26 15,3 C 70 % 1018,9 hPa 0,0 l/m 0,9 km/h (0 Bft) N-NO 17 0 min 0,000 mm 0,0 UV-I 70 W/m 9,9 C 15,3 C 3,2 km/h (1 Bft) 91,49 %
03.04.2017 18:28 15,3 C 70 % 1019,0 hPa 0,0 l/m 0,0 km/h (0 Bft) N-NO 17 0 min 0,000 mm 0,0 UV-I 71 W/m 9,9 C 15,3 C 0,0 km/h (0 Bft) 92,45 %
03.04.2017 18:30 15,3 C 71 % 1019,0 hPa 0,0 l/m 0,7 km/h (0 Bft) N-NO 17 0 min 0,000 mm 0,0 UV-I 72 W/m 10,1 C 15,3 C 3,2 km/h (1 Bft) 94,74 %
03.04.2017 18:32 15,3 C 69 % 1019,0 hPa 0,0 l/m 0,1 km/h (0 Bft) N-NO 17 0 min 0,000 mm 0,0 UV-I 70 W/m 9,6 C 15,3 C 1,6 km/h (1 Bft) 94,00 %
03.04.2017 18:34 15,3 C 68 % 1019,0 hPa 0,0 l/m 1,4 km/h (1 Bft) N-NO 17 0 min 0,000 mm 0,0 UV-I 62 W/m 9,4 C 15,3 C 3,2 km/h (1 Bft) 95,12 %
03.04.2017 18:36 15,3 C 68 % 1018,9 hPa 0,0 l/m 0,8 km/h (0 Bft) N-NO 17 0 min 0,000 mm 0,0 UV-I 56 W/m 9,4 C 15,3 C 3,2 km/h (1 Bft) 94,34 %
03.04.2017 18:38 15,3 C 69 % 1018,9 hPa 0,0 l/m 1,1 km/h (1 Bft) N-NO 17 0 min 0,000 mm 0,0 UV-I 47 W/m 9,6 C 15,3 C 4,8 km/h (1 Bft) 95,12 %
03.04.2017 18:40 15,3 C 70 % 1018,9 hPa 0,0 l/m 0,0 km/h (0 Bft) N-NO 17 0 min 0,000 mm 0,0 UV-I 41 W/m 9,9 C 15,3 C 0,0 km/h (0 Bft) 95,83 %
03.04.2017 18:42 15,2 C 71 % 1018,9 hPa 0,0 l/m 0,0 km/h (0 Bft) N-NO 17 0 min 0,000 mm 0,0 UV-I 38 W/m 10,0 C 15,2 C 0,0 km/h (0 Bft) 95,92 %
03.04.2017 18:44 15,1 C 72 % 1019,0 hPa 0,0 l/m 0,0 km/h (0 Bft) N-NO 17 0 min 0,000 mm 0,0 UV-I 38 W/m 10,1 C 15,1 C 0,0 km/h (0 Bft) 96,00 %
03.04.2017 18:46 15,0 C 72 % 1018,9 hPa 0,0 l/m 0,0 km/h (0 Bft) N-NO 17 0 min 0,000 mm 0,0 UV-I 33 W/m 10,0 C 15,0 C 0,0 km/h (0 Bft) 94,00 %
03.04.2017 18:48 15,0 C 72 % 1018,9 hPa 0,0 l/m 0,0 km/h (0 Bft) N-NO 17 0 min 0,000 mm 0,0 UV-I 33 W/m 10,0 C 15,0 C 0,0 km/h (0 Bft) 95,74 %
03.04.2017 18:50 15,0 C 71 % 1018,9 hPa 0,0 l/m 0,0 km/h (0 Bft) N-NO 17 0 min 0,000 mm 0,0 UV-I 33 W/m 9,8 C 15,0 C 0,0 km/h (0 Bft) 92,86 %
03.04.2017 18:52 14,9 C 72 % 1018,9 hPa 0,0 l/m 0,1 km/h (0 Bft) N-NO 17 0 min 0,000 mm 0,0 UV-I 32 W/m 9,9 C 14,9 C 1,6 km/h (1 Bft) 98,00 %
03.04.2017 18:54 14,8 C 72 % 1018,9 hPa 0,0 l/m 0,0 km/h (0 Bft) N-NO 17 0 min 0,000 mm 0,0 UV-I 30 W/m 9,8 C 14,8 C 1,6 km/h (1 Bft) 96,00 %
03.04.2017 18:56 14,7 C 72 % 1018,9 hPa 0,0 l/m 0,4 km/h (0 Bft) N-NO 17 0 min 0,000 mm 0,0 UV-I 26 W/m 9,7 C 14,7 C 3,2 km/h (1 Bft) 94,74 %
03.04.2017 18:58 14,7 C 72 % 1019,0 hPa 0,0 l/m 2,1 km/h (1 Bft) N 5 0 min 0,000 mm 0,0 UV-I 23 W/m 9,7 C 14,7 C 4,8 km/h (1 Bft) 93,62 %
03.04.2017 19:00 14,7 C 73 % 1019,0 hPa 0,0 l/m 4,9 km/h (1 Bft) N-NW 329 0 min 0,051 mm 0,0 UV-I 19 W/m 9,9 C 14,7 C 9,7 km/h (2 Bft) 98,00 %
03.04.2017 19:03 14,7 C 74 % 1019,0 hPa 0,0 l/m 2,4 km/h (1 Bft) NW 315 0 min 0,000 mm 0,0 UV-I 18 W/m 10,1 C 14,7 C 4,8 km/h (1 Bft) 97,37 %
03.04.2017 19:04 14,6 C 73 % 1019,0 hPa 0,0 l/m 2,5 km/h (1 Bft) N 5 0 min 0,000 mm 0,0 UV-I 16 W/m 9,8 C 14,6 C 4,8 km/h (1 Bft) 100,00 %
03.04.2017 19:06 14,6 C 74 % 1019,0 hPa 0,0 l/m 3,1 km/h (1 Bft) N 355 0 min 0,000 mm 0,0 UV-I 15 W/m 10,0 C 14,6 C 6,4 km/h (2 Bft) 92,45 %
03.04.2017 19:08 14,5 C 74 % 1019,1 hPa 0,0 l/m 0,8 km/h (0 Bft) N 5 0 min 0,000 mm 0,0 UV-I 12 W/m 9,9 C 14,5 C 6,4 km/h (2 Bft) 92,11 %
03.04.2017 19:10 14,4 C 74 % 1019,1 hPa 0,0 l/m 1,7 km/h (1 Bft) NW 325 0 min 0,000 mm 0,0 UV-I 11 W/m 9,8 C 14,4 C 4,8 km/h (1 Bft) 96,00 %
03.04.2017 19:13 14,4 C 75 % 1019,1 hPa 0,0 l/m 1,1 km/h (1 Bft) NW 316 0 min 0,000 mm 0,0 UV-I 10 W/m 10,0 C 14,4 C 6,4 km/h (2 Bft) 90,91 %
03.04.2017 19:14 14,3 C 75 % 1019,2 hPa 0,0 l/m 3,1 km/h (1 Bft) NW 309 0 min 0,000 mm 0,0 UV-I 7 W/m 9,9 C 14,3 C 6,4 km/h (2 Bft) 92,31 %
03.04.2017 19:15 14,3 C 74 % 1019,2 hPa 0,0 l/m 1,6 km/h (1 Bft) N-NW 337 0 min 0,000 mm 0,0 UV-I 9 W/m 9,7 C 14,3 C 6,4 km/h (2 Bft) 95,61 %
03.04.2017 19:18 14,2 C 75 % 1019,2 hPa 0,0 l/m 2,8 km/h (1 Bft) N 10 0 min 0,000 mm 0,0 UV-I 5 W/m 9,8 C 14,2 C 4,8 km/h (1 Bft) 97,73 %
03.04.2017 19:20 14,2 C 75 % 1019,1 hPa 0,0 l/m 2,5 km/h (1 Bft) N-NO 19 0 min 0,000 mm 0,0 UV-I 5 W/m 9,8 C 14,2 C 4,8 km/h (1 Bft) 94,74 %
03.04.2017 19:22 14,2 C 75 % 1019,1 hPa 0,0 l/m 2,4 km/h (1 Bft) N-NW 343 0 min 0,000 mm 0,0 UV-I 5 W/m 9,8 C 14,2 C 4,8 km/h (1 Bft) 96,23 %
03.04.2017 19:24 14,1 C 75 % 1019,2 hPa 0,0 l/m 0,9 km/h (0 Bft) N-NW 338 0 min 0,000 mm 0,0 UV-I 5 W/m 9,7 C 14,1 C 3,2 km/h (1 Bft) 97,56 %
03.04.2017 19:26 14,1 C 75 % 1019,2 hPa 0,0 l/m 2,3 km/h (1 Bft) NW 322 0 min 0,000 mm 0,0 UV-I 5 W/m 9,7 C 14,1 C 4,8 km/h (1 Bft) 98,11 %
03.04.2017 19:28 14,0 C 76 % 1019,2 hPa 0,0 l/m 2,7 km/h (1 Bft) N-NW 338 0 min 0,000 mm 0,0 UV-I 5 W/m 9,8 C 14,0 C 6,4 km/h (2 Bft) 95,12 %
03.04.2017 19:30 14,0 C 75 % 1019,2 hPa 0,0 l/m 3,5 km/h (1 Bft) N-NW 331 0 min 0,000 mm 0,0 UV-I 5 W/m 9,6 C 14,0 C 6,4 km/h (2 Bft) 97,87 %
03.04.2017 19:32 13,9 C 76 % 1019,2 hPa 0,0 l/m 1,2 km/h (1 Bft) N-NW 343 0 min 0,000 mm 0,0 UV-I 5 W/m 9,7 C 13,9 C 3,2 km/h (1 Bft) 100,00 %
03.04.2017 19:34 13,9 C 76 % 1019,2 hPa 0,0 l/m 3,0 km/h (1 Bft) N-NO 14 0 min 0,000 mm 0,0 UV-I 5 W/m 9,7 C 13,9 C 8,0 km/h (2 Bft) 100,00 %
03.04.2017 19:36 13,8 C 77 % 1019,2 hPa 0,0 l/m 2,2 km/h (1 Bft) N 11 0 min 0,000 mm 0,0 UV-I 5 W/m 9,8 C 13,8 C 6,4 km/h (2 Bft) 100,00 %
03.04.2017 19:38 13,8 C 77 % 1019,1 hPa 0,0 l/m 0,6 km/h (0 Bft) N 11 0 min 0,000 mm 0,0 UV-I 5 W/m 9,8 C 13,8 C 3,2 km/h (1 Bft) 97,87 %
03.04.2017 19:40 13,7 C 78 % 1019,1 hPa 0,0 l/m 0,1 km/h (0 Bft) N 11 0 min 0,000 mm 0,0 UV-I 2 W/m 9,9 C 13,7 C 1,6 km/h (1 Bft) 97,87 %
03.04.2017 19:42 13,7 C 77 % 1019,1 hPa 0,0 l/m 0,3 km/h (0 Bft) N 11 0 min 0,000 mm 0,0 UV-I 0 W/m 9,7 C 13,7 C 1,6 km/h (1 Bft) 94,00 %
03.04.2017 19:44 13,6 C 78 % 1019,2 hPa 0,0 l/m 0,0 km/h (0 Bft) N 11 0 min 0,000 mm 0,0 UV-I 0 W/m 9,8 C 13,6 C 1,6 km/h (1 Bft) 97,87 %
03.04.2017 19:46 13,6 C 77 % 1019,2 hPa 0,0 l/m 0,0 km/h (0 Bft) N 11 0 min 0,000 mm 0,0 UV-I 0 W/m 9,6 C 13,6 C 0,0 km/h (0 Bft) 100,00 %
03.04.2017 19:48 13,6 C 77 % 1019,3 hPa 0,0 l/m 0,4 km/h (0 Bft) N 11 0 min 0,000 mm 0,0 UV-I 0 W/m 9,6 C 13,6 C 1,6 km/h (1 Bft) 96,00 %
03.04.2017 19:50 13,5 C 77 % 1019,3 hPa 0,0 l/m 0,8 km/h (0 Bft) N 5 0 min 0,000 mm 0,0 UV-I 0 W/m 9,5 C 13,5 C 4,8 km/h (1 Bft) 100,00 %
03.04.2017 19:52 13,5 C 78 % 1019,3 hPa 0,0 l/m 1,4 km/h (1 Bft) N 11 0 min 0,000 mm 0,0 UV-I 0 W/m 9,7 C 13,5 C 3,2 km/h (1 Bft) 97,44 %
03.04.2017 19:54 13,4 C 77 % 1019,3 hPa 0,0 l/m 3,2 km/h (1 Bft) NW 325 0 min 0,000 mm 0,0 UV-I 0 W/m 9,5 C 13,4 C 4,8 km/h (1 Bft) 98,11 %
03.04.2017 19:56 13,4 C 77 % 1019,2 hPa 0,0 l/m 1,4 km/h (1 Bft) N-NW 330 0 min 0,000 mm 0,0 UV-I 0 W/m 9,5 C 13,4 C 4,8 km/h (1 Bft) 100,00 %
03.04.2017 19:58 13,4 C 77 % 1019,2 hPa 0,0 l/m 3,0 km/h (1 Bft) N-NW 331 0 min 0,000 mm 0,0 UV-I 0 W/m 9,5 C 13,4 C 6,4 km/h (2 Bft) 89,47 %
03.04.2017 20:00 13,3 C 77 % 1019,2 hPa 0,0 l/m 2,0 km/h (1 Bft) N-NO 17 0 min 0,000 mm 0,0 UV-I 0 W/m 9,4 C 13,3 C 4,8 km/h (1 Bft) 100,00 %
03.04.2017 20:02 13,3 C 77 % 1019,3 hPa 0,0 l/m 2,0 km/h (1 Bft) N 5 0 min 0,000 mm 0,0 UV-I 0 W/m 9,4 C 13,3 C 6,4 km/h (2 Bft) 97,56 %
03.04.2017 20:04 13,2 C 77 % 1019,3 hPa 0,0 l/m 4,3 km/h (1 Bft) N-NO 19 0 min 0,000 mm 0,0 UV-I 0 W/m 9,3 C 13,2 C 11,3 km/h (2 Bft) 96,23 %
03.04.2017 20:06 13,2 C 77 % 1019,3 hPa 0,0 l/m 4,8 km/h (1 Bft) N-NO 29 0 min 0,000 mm 0,0 UV-I 0 W/m 9,3 C 13,2 C 8,0 km/h (2 Bft) 100,00 %
03.04.2017 20:08 13,2 C 77 % 1019,2 hPa 0,0 l/m 7,9 km/h (2 Bft) N-NO 19 0 min 0,000 mm 0,0 UV-I 0 W/m 9,3 C 12,3 C 12,9 km/h (3 Bft) 100,00 %
03.04.2017 20:10 13,2 C 77 % 1019,2 hPa 0,0 l/m 6,3 km/h (2 Bft) N-NO 24 0 min 0,000 mm 0,0 UV-I 0 W/m 9,3 C 13,2 C 9,7 km/h (2 Bft) 91,49 %
03.04.2017 20:12 13,2 C 77 % 1019,2 hPa 0,0 l/m 6,1 km/h (2 Bft) N-NO 32 0 min 0,000 mm 0,0 UV-I 0 W/m 9,3 C 13,2 C 8,0 km/h (2 Bft) 92,45 %
03.04.2017 20:14 13,2 C 78 % 1019,2 hPa 0,0 l/m 4,9 km/h (1 Bft) N-NO 22 0 min 0,000 mm 0,0 UV-I 0 W/m 9,4 C 13,2 C 6,4 km/h (2 Bft) 97,56 %
03.04.2017 20:16 13,1 C 78 % 1019,2 hPa 0,0 l/m 3,9 km/h (1 Bft) N-NO 19 0 min 0,000 mm 0,0 UV-I 0 W/m 9,4 C 13,1 C 11,3 km/h (2 Bft) 97,37 %
03.04.2017 20:18 13,1 C 78 % 1019,2 hPa 0,0 l/m 3,7 km/h (1 Bft) N-NO 24 0 min 0,000 mm 0,0 UV-I 0 W/m 9,4 C 13,1 C 11,3 km/h (2 Bft) 98,00 %
03.04.2017 20:20 13,0 C 78 % 1019,2 hPa 0,0 l/m 3,3 km/h (1 Bft) N 11 0 min 0,000 mm 0,0 UV-I 0 W/m 9,3 C 13,0 C 6,4 km/h (2 Bft) 96,23 %
03.04.2017 20:22 12,9 C 78 % 1019,2 hPa 0,0 l/m 3,2 km/h (1 Bft) N-NO 17 0 min 0,000 mm 0,0 UV-I 0 W/m 9,2 C 12,9 C 6,4 km/h (2 Bft) 96,23 %
03.04.2017 20:24 12,9 C 78 % 1019,2 hPa 0,0 l/m 1,8 km/h (1 Bft) N 5 0 min 0,000 mm 0,0 UV-I 0 W/m 9,2 C 12,9 C 4,8 km/h (1 Bft) 95,74 %
03.04.2017 20:26 12,9 C 79 % 1019,2 hPa 0,0 l/m 2,0 km/h (1 Bft) N-NO 24 0 min 0,000 mm 0,0 UV-I 0 W/m 9,3 C 12,9 C 8,0 km/h (2 Bft) 97,44 %
03.04.2017 20:28 12,8 C 79 % 1019,2 hPa 0,0 l/m 1,9 km/h (1 Bft) N-NO 26 0 min 0,000 mm 0,0 UV-I 0 W/m 9,2 C 12,8 C 4,8 km/h (1 Bft) 94,55 %
03.04.2017 20:30 12,8 C 79 % 1019,2 hPa 0,0 l/m 2,0 km/h (1 Bft) N 360 0 min 0,000 mm 0,0 UV-I 0 W/m 9,2 C 12,8 C 4,8 km/h (1 Bft) 89,74 %
03.04.2017 20:32 12,8 C 79 % 1019,2 hPa 0,0 l/m 0,7 km/h (0 Bft) N 355 0 min 0,000 mm 0,0 UV-I 0 W/m 9,2 C 12,8 C 3,2 km/h (1 Bft) 90,00 %
03.04.2017 20:34 12,8 C 78 % 1019,2 hPa 0,0 l/m 4,9 km/h (1 Bft) N 5 0 min 0,000 mm 0,0 UV-I 0 W/m 9,1 C 12,8 C 8,0 km/h (2 Bft) 92,11 %
03.04.2017 20:36 12,8 C 78 % 1019,3 hPa 0,0 l/m 7,7 km/h (2 Bft) N-NO 32 0 min 0,000 mm 0,0 UV-I 0 W/m 9,1 C 12,0 C 14,5 km/h (3 Bft) 89,29 %
03.04.2017 20:38 12,8 C 77 % 1019,3 hPa 0,0 l/m 7,2 km/h (2 Bft) NO 34 0 min 0,000 mm 0,0 UV-I 0 W/m 8,9 C 12,3 C 9,7 km/h (2 Bft) 96,00 %
03.04.2017 20:40 12,9 C 77 % 1019,2 hPa 0,0 l/m 7,6 km/h (2 Bft) N-NO 24 0 min 0,000 mm 0,0 UV-I 0 W/m 9,0 C 12,1 C 14,5 km/h (3 Bft) 97,87 %
03.04.2017 20:42 12,9 C 77 % 1019,3 hPa 0,0 l/m 7,4 km/h (2 Bft) NO 38 0 min 0,000 mm 0,0 UV-I 0 W/m 9,0 C 12,3 C 11,3 km/h (2 Bft) 95,74 %
03.04.2017 20:44 12,9 C 77 % 1019,3 hPa 0,0 l/m 6,5 km/h (2 Bft) N-NO 28 0 min 0,000 mm 0,0 UV-I 0 W/m 9,0 C 12,9 C 9,7 km/h (2 Bft) 91,43 %
03.04.2017 20:46 12,9 C 76 % 1019,3 hPa 0,0 l/m 7,1 km/h (2 Bft) NO 49 0 min 0,000 mm 0,0 UV-I 0 W/m 8,8 C 12,5 C 9,7 km/h (2 Bft) 98,04 %
03.04.2017 20:48 12,9 C 77 % 1019,3 hPa 0,0 l/m 6,8 km/h (2 Bft) NO 43 0 min 0,000 mm 0,0 UV-I 0 W/m 9,0 C 12,7 C 9,7 km/h (2 Bft) 96,23 %
03.04.2017 20:50 12,9 C 77 % 1019,3 hPa 0,0 l/m 6,2 km/h (2 Bft) NO 43 0 min 0,000 mm 0,0 UV-I 0 W/m 9,0 C 12,9 C 9,7 km/h (2 Bft) 94,00 %
03.04.2017 20:52 12,9 C 76 % 1019,3 hPa 0,0 l/m 5,9 km/h (2 Bft) NO 34 0 min 0,000 mm 0,0 UV-I 0 W/m 8,8 C 12,9 C 8,0 km/h (2 Bft) 95,74 %
03.04.2017 20:54 12,9 C 77 % 1019,3 hPa 0,0 l/m 6,1 km/h (2 Bft) NO 49 0 min 0,000 mm 0,0 UV-I 0 W/m 9,0 C 12,9 C 8,0 km/h (2 Bft) 97,56 %
03.04.2017 20:56 12,9 C 77 % 1019,3 hPa 0,0 l/m 3,9 km/h (1 Bft) NO 48 0 min 0,000 mm 0,0 UV-I 0 W/m 9,0 C 12,9 C 6,4 km/h (2 Bft) 96,00 %
03.04.2017 20:58 12,8 C 77 % 1019,3 hPa 0,0 l/m 3,3 km/h (1 Bft) NO 35 0 min 0,000 mm 0,0 UV-I 0 W/m 8,9 C 12,8 C 4,8 km/h (1 Bft) 94,74 %
03.04.2017 21:00 12,8 C 77 % 1019,4 hPa 0,0 l/m 4,2 km/h (1 Bft) NO 34 0 min 0,000 mm 0,0 UV-I 0 W/m 8,9 C 12,8 C 4,8 km/h (1 Bft) 100,00 %
03.04.2017 21:02 12,8 C 77 % 1019,4 hPa 0,0 l/m 3,7 km/h (1 Bft) NO 34 0 min 0,025 mm 0,0 UV-I 0 W/m 8,9 C 12,8 C 4,8 km/h (1 Bft) 98,11 %
03.04.2017 21:04 12,8 C 77 % 1019,4 hPa 0,0 l/m 3,1 km/h (1 Bft) NO 34 0 min 0,000 mm 0,0 UV-I 0 W/m 8,9 C 12,8 C 6,4 km/h (2 Bft) 100,00 %
03.04.2017 21:06 12,8 C 78 % 1019,4 hPa 0,0 l/m 2,4 km/h (1 Bft) NO 34 0 min 0,000 mm 0,0 UV-I 0 W/m 9,1 C 12,8 C 4,8 km/h (1 Bft) 98,18 %
03.04.2017 21:08 12,7 C 78 % 1019,4 hPa 0,0 l/m 0,3 km/h (0 Bft) NO 34 0 min 0,000 mm 0,0 UV-I 0 W/m 9,0 C 12,7 C 1,6 km/h (1 Bft) 100,00 %
03.04.2017 21:10 12,7 C 79 % 1019,5 hPa 0,0 l/m 0,3 km/h (0 Bft) NO 34 0 min 0,000 mm 0,0 UV-I 0 W/m 9,2 C 12,7 C 1,6 km/h (1 Bft) 100,00 %
03.04.2017 21:12 12,6 C 80 % 1019,5 hPa 0,0 l/m 1,0 km/h (0 Bft) NO 34 0 min 0,000 mm 0,0 UV-I 0 W/m 9,2 C 12,6 C 3,2 km/h (1 Bft) 100,00 %
03.04.2017 21:14 12,5 C 80 % 1019,5 hPa 0,0 l/m 0,4 km/h (0 Bft) NO 34 0 min 0,000 mm 0,0 UV-I 0 W/m 9,1 C 12,5 C 1,6 km/h (1 Bft) 96,00 %
03.04.2017 21:16 12,5 C 80 % 1019,5 hPa 0,0 l/m 3,7 km/h (1 Bft) NO 34 0 min 0,000 mm 0,0 UV-I 0 W/m 9,1 C 12,5 C 4,8 km/h (1 Bft) 96,23 %
03.04.2017 21:18 12,5 C 79 % 1019,5 hPa 0,0 l/m 4,7 km/h (1 Bft) NO 34 0 min 0,000 mm 0,0 UV-I 0 W/m 9,0 C 12,5 C 6,4 km/h (2 Bft) 97,37 %
03.04.2017 21:20 12,5 C 79 % 1019,6 hPa 0,0 l/m 5,3 km/h (1 Bft) NO 36 0 min 0,000 mm 0,0 UV-I 0 W/m 9,0 C 12,5 C 8,0 km/h (2 Bft) 100,00 %
03.04.2017 21:22 12,6 C 79 % 1019,6 hPa 0,0 l/m 3,7 km/h (1 Bft) NO 36 0 min 0,000 mm 0,0 UV-I 0 W/m 9,1 C 12,6 C 6,4 km/h (2 Bft) 98,00 %
03.04.2017 21:24 12,7 C 79 % 1019,6 hPa 0,0 l/m 3,4 km/h (1 Bft) NO 36 0 min 0,000 mm 0,0 UV-I 0 W/m 9,2 C 12,7 C 4,8 km/h (1 Bft) 100,00 %
03.04.2017 21:26 12,7 C 79 % 1019,6 hPa 0,0 l/m 2,9 km/h (1 Bft) NO 36 0 min 0,000 mm 0,0 UV-I 0 W/m 9,2 C 12,7 C 4,8 km/h (1 Bft) 94,00 %
03.04.2017 21:28 12,6 C 79 % 1019,6 hPa 0,0 l/m 2,7 km/h (1 Bft) NO 36 0 min 0,000 mm 0,0 UV-I 0 W/m 9,1 C 12,6 C 4,8 km/h (1 Bft) 97,37 %
03.04.2017 21:30 12,6 C 80 % 1019,6 hPa 0,0 l/m 1,0 km/h (0 Bft) NO 36 0 min 0,000 mm 0,0 UV-I 0 W/m 9,2 C 12,6 C 4,8 km/h (1 Bft) 100,00 %
03.04.2017 21:32 12,6 C 80 % 1019,6 hPa 0,0 l/m 1,6 km/h (1 Bft) NO 36 0 min 0,000 mm 0,0 UV-I 0 W/m 9,2 C 12,6 C 4,8 km/h (1 Bft) 98,00 %
03.04.2017 21:34 12,5 C 81 % 1019,6 hPa 0,0 l/m 2,0 km/h (1 Bft) NO 36 0 min 0,000 mm 0,0 UV-I 0 W/m 9,3 C 12,5 C 4,8 km/h (1 Bft) 95,12 %
03.04.2017 21:36 12,4 C 81 % 1019,6 hPa 0,0 l/m 2,4 km/h (1 Bft) NO 36 0 min 0,000 mm 0,0 UV-I 0 W/m 9,2 C 12,4 C 4,8 km/h (1 Bft) 98,00 %
03.04.2017 21:38 12,4 C 80 % 1019,6 hPa 0,0 l/m 4,6 km/h (1 Bft) NO 44 0 min 0,000 mm 0,0 UV-I 0 W/m 9,0 C 12,4 C 6,4 km/h (2 Bft) 97,37 %
03.04.2017 21:40 12,5 C 79 % 1019,6 hPa 0,0 l/m 5,2 km/h (1 Bft) NO 40 0 min 0,000 mm 0,0 UV-I 0 W/m 9,0 C 12,5 C 6,4 km/h (2 Bft) 96,43 %
03.04.2017 21:42 12,6 C 79 % 1019,6 hPa 0,0 l/m 5,8 km/h (2 Bft) NO 34 0 min 0,000 mm 0,0 UV-I 0 W/m 9,1 C 12,6 C 8,0 km/h (2 Bft) 95,83 %
03.04.2017 21:44 12,6 C 79 % 1019,6 hPa 0,0 l/m 7,0 km/h (2 Bft) NO 51 0 min 0,000 mm 0,0 UV-I 0 W/m 9,1 C 12,2 C 9,7 km/h (2 Bft) 96,00 %
03.04.2017 21:46 12,5 C 79 % 1019,6 hPa 0,0 l/m 7,3 km/h (2 Bft) NO 43 0 min 0,000 mm 0,0 UV-I 0 W/m 9,0 C 11,9 C 11,3 km/h (2 Bft) 92,86 %
03.04.2017 21:48 12,5 C 79 % 1019,7 hPa 0,0 l/m 6,1 km/h (2 Bft) NO 39 0 min 0,000 mm 0,0 UV-I 0 W/m 9,0 C 12,5 C 8,0 km/h (2 Bft) 98,00 %
03.04.2017 21:50 12,5 C 81 % 1019,8 hPa 0,0 l/m 5,9 km/h (2 Bft) NO 45 0 min 0,000 mm 0,0 UV-I 0 W/m 9,3 C 12,5 C 8,0 km/h (2 Bft) 95,12 %
03.04.2017 21:52 12,4 C 82 % 1019,7 hPa 0,0 l/m 4,7 km/h (1 Bft) O-NO 74 0 min 0,000 mm 0,0 UV-I 0 W/m 9,4 C 12,4 C 8,0 km/h (2 Bft) 93,75 %
03.04.2017 21:54 12,2 C 84 % 1019,8 hPa 0,0 l/m 3,5 km/h (1 Bft) O 86 0 min 0,000 mm 0,0 UV-I 0 W/m 9,6 C 12,2 C 4,8 km/h (1 Bft) 94,00 %
03.04.2017 21:56 12,0 C 85 % 1019,8 hPa 0,0 l/m 1,6 km/h (1 Bft) O 88 0 min 0,000 mm 0,0 UV-I 0 W/m 9,6 C 12,0 C 3,2 km/h (1 Bft) 96,00 %
03.04.2017 21:58 11,9 C 86 % 1019,8 hPa 0,0 l/m 0,4 km/h (0 Bft) O 88 0 min 0,000 mm 0,0 UV-I 0 W/m 9,6 C 11,9 C 1,6 km/h (1 Bft) 97,37 %
03.04.2017 22:00 11,8 C 85 % 1019,9 hPa 0,0 l/m 0,2 km/h (0 Bft) O 88 0 min 0,000 mm 0,0 UV-I 0 W/m 9,4 C 11,8 C 1,6 km/h (1 Bft) 96,00 %
03.04.2017 22:02 11,8 C 85 % 1020,0 hPa 0,0 l/m 2,0 km/h (1 Bft) O 88 0 min 0,000 mm 0,0 UV-I 0 W/m 9,4 C 11,8 C 3,2 km/h (1 Bft) 100,00 %
03.04.2017 22:04 11,8 C 85 % 1020,0 hPa 0,0 l/m 3,8 km/h (1 Bft) S-SW 213 0 min 0,000 mm 0,0 UV-I 0 W/m 9,4 C 11,8 C 6,4 km/h (2 Bft) 96,00 %
03.04.2017 22:06 11,9 C 85 % 1020,1 hPa 0,0 l/m 5,1 km/h (1 Bft) W 263 0 min 0,000 mm 0,0 UV-I 0 W/m 9,5 C 11,9 C 6,4 km/h (2 Bft) 96,23 %
03.04.2017 22:08 11,9 C 84 % 1020,1 hPa 0,0 l/m 3,0 km/h (1 Bft) W 263 0 min 0,000 mm 0,0 UV-I 0 W/m 9,3 C 11,9 C 4,8 km/h (1 Bft) 97,14 %
03.04.2017 22:10 11,9 C 84 % 1020,2 hPa 0,0 l/m 2,3 km/h (1 Bft) W 263 0 min 0,000 mm 0,0 UV-I 0 W/m 9,3 C 11,9 C 3,2 km/h (1 Bft) 97,37 %
03.04.2017 22:12 11,9 C 85 % 1020,3 hPa 0,0 l/m 2,3 km/h (1 Bft) W 262 0 min 0,000 mm 0,0 UV-I 0 W/m 9,5 C 11,9 C 4,8 km/h (1 Bft) 95,38 %
03.04.2017 22:16 11,8 C 84 % 1020,3 hPa 0,0 l/m 6,6 km/h (2 Bft) W-SW 252 0 min 0,000 mm 0,0 UV-I 0 W/m 9,2 C 11,7 C 12,9 km/h (3 Bft) 91,67 %
03.04.2017 22:18 11,8 C 84 % 1020,3 hPa 0,0 l/m 6,7 km/h (2 Bft) W 276 0 min 0,000 mm 0,0 UV-I 0 W/m 9,2 C 11,6 C 14,5 km/h (3 Bft) 94,74 %
03.04.2017 22:20 11,8 C 84 % 1020,3 hPa 0,0 l/m 3,9 km/h (1 Bft) NW 313 0 min 0,000 mm 0,0 UV-I 0 W/m 9,2 C 11,8 C 6,4 km/h (2 Bft) 96,23 %
03.04.2017 22:22 11,7 C 85 % 1020,3 hPa 0,2 l/m 5,9 km/h (2 Bft) W-SW 258 0 min 0,000 mm 0,0 UV-I 0 W/m 9,3 C 11,7 C 16,1 km/h (3 Bft) 97,87 %
03.04.2017 22:24 11,6 C 86 % 1020,3 hPa 0,0 l/m 6,3 km/h (2 Bft) NW 313 0 min 0,000 mm 0,0 UV-I 0 W/m 9,3 C 11,6 C 14,5 km/h (3 Bft) 94,34 %
03.04.2017 22:26 11,4 C 87 % 1020,2 hPa 0,4 l/m 7,9 km/h (2 Bft) W-NW 296 0 min 0,000 mm 0,0 UV-I 0 W/m 9,3 C 10,4 C 19,3 km/h (3 Bft) 97,78 %
03.04.2017 22:28 11,2 C 88 % 1020,2 hPa 0,2 l/m 4,8 km/h (1 Bft) N-NW 331 0 min 0,000 mm 0,0 UV-I 0 W/m 9,3 C 11,2 C 11,3 km/h (2 Bft) 94,74 %
03.04.2017 22:30 10,9 C 89 % 1020,0 hPa 0,0 l/m 7,7 km/h (2 Bft) W 261 0 min 0,000 mm 0,0 UV-I 0 W/m 9,2 C 10,0 C 17,7 km/h (3 Bft) 94,34 %
03.04.2017 22:32 10,8 C 89 % 1020,0 hPa 0,0 l/m 8,1 km/h (2 Bft) NW 323 0 min 0,000 mm 0,0 UV-I 0 W/m 9,1 C 9,6 C 19,3 km/h (3 Bft) 93,62 %
03.04.2017 22:34 10,6 C 90 % 1020,0 hPa 0,2 l/m 8,9 km/h (2 Bft) W-NW 299 0 min 0,000 mm 0,0 UV-I 0 W/m 9,0 C 8,9 C 24,1 km/h (4 Bft) 95,12 %
03.04.2017 22:36 10,5 C 90 % 1020,1 hPa 0,2 l/m 10,9 km/h (2 Bft) NW 304 0 min 0,000 mm 0,0 UV-I 0 W/m 8,9 C 7,7 C 24,1 km/h (4 Bft) 86,79 %
03.04.2017 22:38 10,4 C 90 % 1020,1 hPa 0,0 l/m 11,1 km/h (2 Bft) W-NW 294 0 min 0,000 mm 0,0 UV-I 0 W/m 8,8 C 7,4 C 24,1 km/h (4 Bft) 93,18 %
03.04.2017 22:40 10,3 C 91 % 1020,1 hPa 0,0 l/m 9,8 km/h (2 Bft) NW 314 0 min 0,000 mm 0,0 UV-I 0 W/m 8,9 C 8,0 C 17,7 km/h (3 Bft) 93,18 %
03.04.2017 22:42 10,2 C 91 % 1020,2 hPa 0,2 l/m 8,6 km/h (2 Bft) W-NW 297 0 min 0,000 mm 0,0 UV-I 0 W/m 8,8 C 8,7 C 19,3 km/h (3 Bft) 94,64 %
03.04.2017 22:44 10,1 C 91 % 1020,3 hPa 0,0 l/m 14,7 km/h (3 Bft) W-NW 298 0 min 0,000 mm 0,0 UV-I 0 W/m 8,7 C 5,4 C 30,6 km/h (5 Bft) 94,29 %
03.04.2017 22:46 10,1 C 91 % 1020,3 hPa 0,2 l/m 9,1 km/h (2 Bft) NW 315 0 min 0,000 mm 0,0 UV-I 0 W/m 8,7 C 8,2 C 19,3 km/h (3 Bft) 91,07 %
03.04.2017 22:48 10,0 C 91 % 1020,3 hPa 0,0 l/m 8,2 km/h (2 Bft) W-NW 293 0 min 0,000 mm 0,0 UV-I 0 W/m 8,6 C 8,7 C 14,5 km/h (3 Bft) 90,91 %
03.04.2017 22:50 9,9 C 91 % 1020,4 hPa 0,0 l/m 9,0 km/h (2 Bft) W-NW 300 0 min 0,000 mm 0,0 UV-I 0 W/m 8,5 C 8,1 C 14,5 km/h (3 Bft) 92,11 %
03.04.2017 22:52 9,9 C 92 % 1020,4 hPa 0,0 l/m 5,8 km/h (2 Bft) NW 319 0 min 0,000 mm 0,0 UV-I 0 W/m 8,7 C 9,9 C 17,7 km/h (3 Bft) 94,34 %
03.04.2017 22:54 9,9 C 92 % 1020,5 hPa 0,0 l/m 5,9 km/h (2 Bft) N-NW 335 0 min 0,000 mm 0,0 UV-I 0 W/m 8,7 C 9,9 C 12,9 km/h (3 Bft) 92,00 %
03.04.2017 22:56 9,9 C 92 % 1020,6 hPa 0,0 l/m 5,0 km/h (1 Bft) W 279 0 min 0,000 mm 0,0 UV-I 0 W/m 8,7 C 9,9 C 9,7 km/h (2 Bft) 92,00 %
03.04.2017 22:58 9,9 C 92 % 1020,8 hPa 0,0 l/m 4,3 km/h (1 Bft) W-NW 289 0 min 0,000 mm 0,0 UV-I 0 W/m 8,7 C 9,9 C 11,3 km/h (2 Bft) 95,45 %
03.04.2017 23:00 9,8 C 92 % 1020,9 hPa 0,0 l/m 1,6 km/h (1 Bft) W-NW 282 0 min 0,000 mm 0,0 UV-I 0 W/m 8,6 C 9,8 C 4,8 km/h (1 Bft) 93,62 %
03.04.2017 23:02 9,8 C 92 % 1021,0 hPa 0,0 l/m 3,0 km/h (1 Bft) W-SW 237 0 min 0,000 mm 0,0 UV-I 0 W/m 8,6 C 9,8 C 6,4 km/h (2 Bft) 98,00 %
03.04.2017 23:04 9,8 C 92 % 1021,1 hPa 0,2 l/m 3,3 km/h (1 Bft) NW 313 0 min 0,000 mm 0,0 UV-I 0 W/m 8,6 C 9,8 C 6,4 km/h (2 Bft) 97,22 %
03.04.2017 23:06 9,8 C 92 % 1021,2 hPa 0,2 l/m 0,3 km/h (0 Bft) NW 313 0 min 0,000 mm 0,0 UV-I 0 W/m 8,6 C 9,8 C 1,6 km/h (1 Bft) 98,00 %
03.04.2017 23:08 9,8 C 93 % 1021,3 hPa 0,4 l/m 1,6 km/h (1 Bft) W 269 0 min 0,000 mm 0,0 UV-I 0 W/m 8,7 C 9,8 C 4,8 km/h (1 Bft) 93,62 %
03.04.2017 23:10 9,8 C 93 % 1021,3 hPa 0,4 l/m 1,6 km/h (1 Bft) W-NW 294 0 min 0,000 mm 0,0 UV-I 0 W/m 8,7 C 9,8 C 4,8 km/h (1 Bft) 92,00 %
03.04.2017 23:12 9,8 C 93 % 1021,3 hPa 0,2 l/m 1,2 km/h (1 Bft) W-NW 302 0 min 0,000 mm 0,0 UV-I 0 W/m 8,7 C 9,8 C 3,2 km/h (1 Bft) 95,12 %
03.04.2017 23:14 9,8 C 93 % 1021,2 hPa 0,2 l/m 3,8 km/h (1 Bft) W-NW 303 0 min 0,000 mm 0,0 UV-I 0 W/m 8,7 C 9,8 C 11,3 km/h (2 Bft) 96,61 %
03.04.2017 23:16 9,8 C 93 % 1021,2 hPa 0,2 l/m 4,9 km/h (1 Bft) NW 311 0 min 0,000 mm 0,0 UV-I 0 W/m 8,7 C 9,8 C 9,7 km/h (2 Bft) 97,73 %
03.04.2017 23:18 9,7 C 93 % 1021,2 hPa 0,2 l/m 1,7 km/h (1 Bft) NW 309 0 min 0,000 mm 0,0 UV-I 0 W/m 8,6 C 9,7 C 4,8 km/h (1 Bft) 95,45 %
03.04.2017 23:20 9,7 C 93 % 1021,1 hPa 0,0 l/m 1,0 km/h (0 Bft) N-NW 336 0 min 0,000 mm 0,0 UV-I 0 W/m 8,6 C 9,7 C 4,8 km/h (1 Bft) 97,87 %
03.04.2017 23:22 9,7 C 93 % 1021,1 hPa 0,2 l/m 2,3 km/h (1 Bft) NW 319 0 min 0,000 mm 0,0 UV-I 0 W/m 8,6 C 9,7 C 4,8 km/h (1 Bft) 97,87 %
03.04.2017 23:24 9,6 C 93 % 1021,1 hPa 0,2 l/m 1,7 km/h (1 Bft) NW 323 0 min 0,000 mm 0,0 UV-I 0 W/m 8,5 C 9,6 C 3,2 km/h (1 Bft) 97,73 %
03.04.2017 23:26 9,6 C 93 % 1021,0 hPa 0,2 l/m 1,2 km/h (1 Bft) N-NW 336 0 min 0,000 mm 0,0 UV-I 0 W/m 8,5 C 9,6 C 4,8 km/h (1 Bft) 100,00 %
03.04.2017 23:28 9,6 C 93 % 1021,0 hPa 0,0 l/m 2,0 km/h (1 Bft) N-NW 338 0 min 0,000 mm 0,0 UV-I 0 W/m 8,5 C 9,6 C 6,4 km/h (2 Bft) 95,74 %
03.04.2017 23:30 9,6 C 93 % 1020,9 hPa 0,2 l/m 3,3 km/h (1 Bft) N-NW 336 0 min 0,000 mm 0,0 UV-I 0 W/m 8,5 C 9,6 C 8,0 km/h (2 Bft) 100,00 %
03.04.2017 23:32 9,5 C 93 % 1020,9 hPa 0,2 l/m 2,0 km/h (1 Bft) W-SW 241 0 min 0,000 mm 0,0 UV-I 0 W/m 8,4 C 9,5 C 3,2 km/h (1 Bft) 98,11 %
03.04.2017 23:34 9,5 C 93 % 1020,8 hPa 0,4 l/m 3,2 km/h (1 Bft) N-NW 336 0 min 0,000 mm 0,0 UV-I 0 W/m 8,4 C 9,5 C 4,8 km/h (1 Bft) 97,87 %
03.04.2017 23:36 9,4 C 93 % 1020,9 hPa 0,2 l/m 2,2 km/h (1 Bft) N 350 0 min 0,000 mm 0,0 UV-I 0 W/m 8,3 C 9,4 C 4,8 km/h (1 Bft) 98,00 %
03.04.2017 23:38 9,4 C 93 % 1020,7 hPa 0,4 l/m 3,2 km/h (1 Bft) N-NW 342 0 min 0,000 mm 0,0 UV-I 0 W/m 8,3 C 9,4 C 8,0 km/h (2 Bft) 100,00 %
03.04.2017 23:40 9,4 C 94 % 1020,7 hPa 0,0 l/m 4,3 km/h (1 Bft) W 263 0 min 0,000 mm 0,0 UV-I 0 W/m 8,5 C 9,4 C 12,9 km/h (3 Bft) 97,92 %
03.04.2017 23:42 9,4 C 94 % 1020,6 hPa 0,4 l/m 4,2 km/h (1 Bft) W-NW 288 0 min 0,000 mm 0,0 UV-I 0 W/m 8,5 C 9,4 C 8,0 km/h (2 Bft) 100,00 %
03.04.2017 23:44 9,4 C 94 % 1020,6 hPa 0,2 l/m 5,1 km/h (1 Bft) N-NO 21 0 min 0,000 mm 0,0 UV-I 0 W/m 8,5 C 9,4 C 16,1 km/h (3 Bft) 98,18 %
03.04.2017 23:46 9,3 C 93 % 1020,6 hPa 0,2 l/m 5,0 km/h (1 Bft) NW 323 0 min 0,000 mm 0,0 UV-I 0 W/m 8,2 C 9,3 C 8,0 km/h (2 Bft) 100,00 %
03.04.2017 23:48 9,3 C 94 % 1020,6 hPa 0,4 l/m 4,0 km/h (1 Bft) N-NO 13 0 min 0,000 mm 0,0 UV-I 0 W/m 8,4 C 9,3 C 8,0 km/h (2 Bft) 98,31 %
03.04.2017 23:50 9,3 C 94 % 1020,5 hPa 0,2 l/m 6,0 km/h (2 Bft) N 9 0 min 0,000 mm 0,0 UV-I 0 W/m 8,4 C 9,3 C 12,9 km/h (3 Bft) 98,00 %
03.04.2017 23:53 9,3 C 94 % 1020,5 hPa 0,4 l/m 6,8 km/h (2 Bft) NO 34 0 min 0,000 mm 0,0 UV-I 0 W/m 8,4 C 9,0 C 12,9 km/h (3 Bft) 98,63 %
03.04.2017 23:54 9,2 C 94 % 1020,5 hPa 0,0 l/m 6,2 km/h (2 Bft) N-NO 26 0 min 0,000 mm 0,0 UV-I 0 W/m 8,3 C 9,2 C 12,9 km/h (3 Bft) 91,67 %
03.04.2017 23:56 9,2 C 94 % 1020,4 hPa 0,2 l/m 6,4 km/h (2 Bft) N 355 0 min 0,000 mm 0,0 UV-I 0 W/m 8,3 C 9,2 C 16,1 km/h (3 Bft) 100,00 %
03.04.2017 23:58 9,2 C 94 % 1020,4 hPa 0,2 l/m 5,5 km/h (1 Bft) O 82 0 min 0,000 mm 0,0 UV-I 0 W/m 8,3 C 9,2 C 14,5 km/h (3 Bft) 100,00 %
_ Min-Zeit 06:28 17:06 00:00 - 09:36 - - - - - - 05:58 22:44 09:36 05:38
Minimum _ 8,1 C 63 % 1016,8 hPa - 0,0 km/h (0 Bft) - - - - - - 5,9 C 5,4 C 0,0 km/h (0 Bft) 86,00 %
_ Max-Zeit 16:32 23:40 23:08 22:26 22:44 - - 16:55 13:00 12:42 12:44 15:06 16:32 22:44 01:48
Maximum _ 16,6 C 94 % 1021,3 hPa 0,4 l/m 14,7 km/h
W-NW (3 Bft)
- - 3 min 0,229 mm 2,7 UV-I 871 W/m 11,0 C 16,6 C 30,6 km/h
NW (5 Bft)
100,00 %
Durchschnitt _ 12,4 C 77 % 1019,5 hPa #7,8 l/m 3,3 km/h (1 Bft) S-SW - #4:58 h #1,854 mm 1,2 UV-I 243 W/m 8,5 C 12,3 C 6,2 km/h (2 Bft) 96,67 %